Time,TemperatureF,DewpointF,PressureIn,WindDirection,WindDirectionDegrees,WindSpeedMPH,WindSpeedGustMPH,Humidity,HourlyPrecipIn,Conditions,Clouds,dailyrainin,SoftwareType,DateUTC
2013-03-02 00:01:00,25.7,2.5,30.33,North,354,0.0,0.0,36,0.00,,---,0.00,VWS V14.00,2013-03-02 06:01:00,
2013-03-02 00:02:00,25.6,2.4,30.33,North,354,0.0,0.0,36,0.00,,---,0.00,VWS V14.00,2013-03-02 06:02:00,
2013-03-02 00:06:00,25.6,2.4,30.33,North,354,0.0,0.0,36,0.00,,---,0.00,VWS V14.00,2013-03-02 06:06:00,
2013-03-02 00:07:00,25.7,2.5,30.33,North,354,0.0,0.0,36,0.00,,---,0.00,VWS V14.00,2013-03-02 06:07:00,
2013-03-02 00:08:00,25.7,2.5,30.33,North,354,0.0,0.0,36,0.00,,---,0.00,VWS V14.00,2013-03-02 06:08:00,
2013-03-02 00:11:00,25.6,1.8,30.33,North,354,0.0,0.0,35,0.00,,---,0.00,VWS V14.00,2013-03-02 06:11:00,
2013-03-02 00:12:00,25.6,1.8,30.33,North,354,0.0,0.0,35,0.00,,---,0.00,VWS V14.00,2013-03-02 06:12:00,
2013-03-02 00:13:00,25.4,1.6,30.33,North,354,0.0,0.0,35,0.00,,---,0.00,VWS V14.00,2013-03-02 06:13:00,
2013-03-02 00:16:00,25.3,2.1,30.33,North,354,0.0,0.0,36,0.00,,---,0.00,VWS V14.00,2013-03-02 06:16:00,
2013-03-02 00:17:00,25.1,1.9,30.33,North,354,0.0,0.0,36,0.00,,---,0.00,VWS V14.00,2013-03-02 06:17:00,
2013-03-02 00:18:00,25.1,1.9,30.33,North,354,0.0,0.0,36,0.00,,---,0.00,VWS V14.00,2013-03-02 06:18:00,
2013-03-02 00:21:00,24.8,2.2,30.33,North,354,0.0,0.0,37,0.00,,---,0.00,VWS V14.00,2013-03-02 06:21:00,
2013-03-02 00:22:00,24.7,1.6,30.33,North,354,0.0,0.0,36,0.00,,---,0.00,VWS V14.00,2013-03-02 06:22:00,
2013-03-02 00:23:00,24.5,1.4,30.33,North,354,0.0,0.0,36,0.00,,---,0.00,VWS V14.00,2013-03-02 06:23:00,
2013-03-02 00:26:00,24.2,2.3,30.33,North,354,0.0,0.0,38,0.00,,---,0.00,VWS V14.00,2013-03-02 06:26:00,
2013-03-02 00:27:00,24.2,2.3,30.33,North,354,0.0,0.0,38,0.00,,---,0.00,VWS V14.00,2013-03-02 06:27:00,
2013-03-02 00:28:00,24.1,2.2,30.33,North,354,0.0,0.0,38,0.00,,---,0.00,VWS V14.00,2013-03-02 06:28:00,
2013-03-02 00:31:00,23.8,2.5,30.34,North,354,0.0,0.0,39,0.00,,---,0.00,VWS V14.00,2013-03-02 06:31:00,
2013-03-02 00:32:00,23.8,2.5,30.34,North,354,0.0,0.0,39,0.00,,---,0.00,VWS V14.00,2013-03-02 06:32:00,
2013-03-02 00:33:00,23.8,2.5,30.34,North,354,0.0,0.0,39,0.00,,---,0.00,VWS V14.00,2013-03-02 06:33:00,
2013-03-02 00:36:00,23.6,1.7,30.34,North,354,0.0,0.0,38,0.00,,---,0.00,VWS V14.00,2013-03-02 06:36:00,
2013-03-02 00:37:00,23.5,1.6,30.34,North,354,0.0,0.0,38,0.00,,---,0.00,VWS V14.00,2013-03-02 06:37:00,
2013-03-02 00:38:00,23.5,1.6,30.34,North,354,0.0,0.0,38,0.00,,---,0.00,VWS V14.00,2013-03-02 06:38:00,
2013-03-02 00:41:00,23.5,2.2,30.34,North,354,0.0,0.0,39,0.00,,---,0.00,VWS V14.00,2013-03-02 06:41:00,
2013-03-02 00:42:00,23.5,2.2,30.34,North,354,0.0,0.0,39,0.00,,---,0.00,VWS V14.00,2013-03-02 06:42:00,
2013-03-02 00:43:00,23.5,2.2,30.34,North,354,0.0,0.0,39,0.00,,---,0.00,VWS V14.00,2013-03-02 06:43:00,
2013-03-02 00:46:00,23.3,2.6,30.34,North,354,0.0,0.0,40,0.00,,---,0.00,VWS V14.00,2013-03-02 06:46:00,
2013-03-02 00:47:00,23.3,2.6,30.34,North,354,0.0,0.0,40,0.00,,---,0.00,VWS V14.00,2013-03-02 06:47:00,
2013-03-02 00:48:00,23.2,1.9,30.34,North,354,0.0,0.0,39,0.00,,---,0.00,VWS V14.00,2013-03-02 06:48:00,
2013-03-02 00:52:00,23.0,2.3,30.34,North,354,0.0,0.0,40,0.00,,---,0.00,VWS V14.00,2013-03-02 06:52:00,
2013-03-02 00:54:00,22.7,1.5,30.34,North,354,0.0,0.0,39,0.00,,---,0.00,VWS V14.00,2013-03-02 06:54:00,
2013-03-02 00:57:00,22.7,2.0,30.34,North,354,0.0,0.0,40,0.00,,---,0.00,VWS V14.00,2013-03-02 06:57:00,
2013-03-02 00:59:00,22.5,1.8,30.34,North,354,0.0,0.0,40,0.00,,---,0.00,VWS V14.00,2013-03-02 06:59:00,
2013-03-02 01:02:00,22.4,1.8,30.34,North,354,0.0,0.0,40,0.00,,---,0.00,VWS V14.00,2013-03-02 07:02:00,
2013-03-02 01:03:00,22.4,1.8,30.34,North,354,0.0,0.0,40,0.00,,---,0.00,VWS V14.00,2013-03-02 07:03:00,
2013-03-02 01:04:00,22.4,1.8,30.34,North,354,0.0,0.0,40,0.00,,---,0.00,VWS V14.00,2013-03-02 07:04:00,
2013-03-02 01:07:00,22.4,1.8,30.34,North,354,0.0,0.0,40,0.00,,---,0.00,VWS V14.00,2013-03-02 07:07:00,
2013-03-02 01:08:00,22.2,1.0,30.34,North,354,0.0,0.0,39,0.00,,---,0.00,VWS V14.00,2013-03-02 07:08:00,
2013-03-02 01:09:00,22.2,1.6,30.34,North,354,0.0,0.0,40,0.00,,---,0.00,VWS V14.00,2013-03-02 07:09:00,
2013-03-02 01:12:00,22.2,2.1,30.34,North,354,0.0,0.0,41,0.00,,---,0.00,VWS V14.00,2013-03-02 07:12:00,
2013-03-02 01:13:00,22.2,1.6,30.34,North,354,0.0,0.0,40,0.00,,---,0.00,VWS V14.00,2013-03-02 07:13:00,
2013-03-02 01:14:00,22.4,1.8,30.35,North,354,0.0,0.0,40,0.00,,---,0.00,VWS V14.00,2013-03-02 07:14:00,
2013-03-02 01:17:00,22.5,1.8,30.35,North,354,0.0,0.0,40,0.00,,---,0.00,VWS V14.00,2013-03-02 07:17:00,
2013-03-02 01:18:00,22.5,1.8,30.35,North,354,0.0,0.0,40,0.00,,---,0.00,VWS V14.00,2013-03-02 07:18:00,
2013-03-02 01:19:00,22.7,2.5,30.35,North,354,0.0,0.0,41,0.00,,---,0.00,VWS V14.00,2013-03-02 07:19:00,
2013-03-02 01:22:00,22.7,2.0,30.35,North,354,0.0,0.0,40,0.00,,---,0.00,VWS V14.00,2013-03-02 07:22:00,
2013-03-02 01:23:00,22.5,1.8,30.35,North,354,0.0,0.0,40,0.00,,---,0.00,VWS V14.00,2013-03-02 07:23:00,
2013-03-02 01:25:00,22.4,1.2,30.35,North,354,0.0,0.0,39,0.00,,---,0.00,VWS V14.00,2013-03-02 07:25:00,
2013-03-02 01:27:00,22.2,1.6,30.35,North,354,0.0,0.0,40,0.00,,---,0.00,VWS V14.00,2013-03-02 07:27:00,
2013-03-02 01:28:00,22.2,1.6,30.35,North,354,0.0,0.0,40,0.00,,---,0.00,VWS V14.00,2013-03-02 07:28:00,
2013-03-02 01:30:00,22.1,1.5,30.35,North,354,0.0,0.0,40,0.00,,---,0.00,VWS V14.00,2013-03-02 07:30:00,
2013-03-02 01:32:00,21.9,1.8,30.35,North,354,0.0,0.0,41,0.00,,---,0.00,VWS V14.00,2013-03-02 07:32:00,
2013-03-02 01:33:00,21.9,1.8,30.35,North,354,0.0,0.0,41,0.00,,---,0.00,VWS V14.00,2013-03-02 07:33:00,
2013-03-02 01:35:00,22.1,2.0,30.35,North,354,0.0,0.0,41,0.00,,---,0.00,VWS V14.00,2013-03-02 07:35:00,
2013-03-02 01:37:00,22.1,1.5,30.35,North,354,0.0,0.0,40,0.00,,---,0.00,VWS V14.00,2013-03-02 07:37:00,
2013-03-02 01:38:00,22.1,1.5,30.35,North,354,0.0,0.0,40,0.00,,---,0.00,VWS V14.00,2013-03-02 07:38:00,
2013-03-02 01:40:00,21.8,0.7,30.35,North,354,0.0,0.0,39,0.00,,---,0.00,VWS V14.00,2013-03-02 07:40:00,
2013-03-02 01:42:00,21.6,1.5,30.35,North,354,0.0,0.0,41,0.00,,---,0.00,VWS V14.00,2013-03-02 07:42:00,
2013-03-02 01:43:00,21.6,1.5,30.35,North,354,0.0,0.0,41,0.00,,---,0.00,VWS V14.00,2013-03-02 07:43:00,
2013-03-02 01:45:00,21.4,1.9,30.35,North,354,0.0,0.0,42,0.00,,---,0.00,VWS V14.00,2013-03-02 07:45:00,
2013-03-02 01:48:00,21.4,2.4,30.35,North,354,0.0,0.0,43,0.00,,---,0.00,VWS V14.00,2013-03-02 07:48:00,
2013-03-02 01:50:00,21.3,2.3,30.35,North,354,0.0,0.0,43,0.00,,---,0.00,VWS V14.00,2013-03-02 07:50:00,
2013-03-02 01:53:00,21.3,2.3,30.35,North,354,0.0,0.0,43,0.00,,---,0.00,VWS V14.00,2013-03-02 07:53:00,
2013-03-02 01:55:00,21.3,2.3,30.35,North,354,0.0,0.0,43,0.00,,---,0.00,VWS V14.00,2013-03-02 07:55:00,
2013-03-02 01:58:00,21.3,2.3,30.35,North,354,0.0,0.0,43,0.00,,---,0.00,VWS V14.00,2013-03-02 07:58:00,
2013-03-02 01:59:00,21.4,2.4,30.35,North,354,0.0,0.0,43,0.00,,---,0.00,VWS V14.00,2013-03-02 07:59:00,
2013-03-02 02:00:00,21.4,1.9,30.35,North,354,0.0,0.0,42,0.00,,---,0.00,VWS V14.00,2013-03-02 08:00:00,
2013-03-02 02:03:00,21.3,1.8,30.35,North,354,0.0,0.0,42,0.00,,---,0.00,VWS V14.00,2013-03-02 08:03:00,
2013-03-02 02:04:00,21.3,1.8,30.35,North,354,0.0,0.0,42,0.00,,---,0.00,VWS V14.00,2013-03-02 08:04:00,
2013-03-02 02:05:00,21.3,1.8,30.35,North,354,0.0,0.0,42,0.00,,---,0.00,VWS V14.00,2013-03-02 08:05:00,
2013-03-02 02:08:00,21.1,1.6,30.35,North,354,0.0,0.0,42,0.00,,---,0.00,VWS V14.00,2013-03-02 08:08:00,
2013-03-02 02:09:00,21.0,1.0,30.35,North,354,0.0,0.0,41,0.00,,---,0.00,VWS V14.00,2013-03-02 08:09:00,
2013-03-02 02:10:00,20.8,0.8,30.35,North,354,0.0,0.0,41,0.00,,---,0.00,VWS V14.00,2013-03-02 08:10:00,
2013-03-02 02:13:00,20.6,1.2,30.35,North,354,0.0,0.0,42,0.00,,---,0.00,VWS V14.00,2013-03-02 08:13:00,
2013-03-02 02:14:00,20.6,1.7,30.35,North,354,0.0,0.0,43,0.00,,---,0.00,VWS V14.00,2013-03-02 08:14:00,
2013-03-02 02:16:00,20.8,1.8,30.35,North,354,0.0,0.0,43,0.00,,---,0.00,VWS V14.00,2013-03-02 08:16:00,
2013-03-02 02:18:00,20.5,1.6,30.35,North,354,0.0,0.0,43,0.00,,---,0.00,VWS V14.00,2013-03-02 08:18:00,
2013-03-02 02:19:00,20.5,1.6,30.35,North,354,0.0,0.0,43,0.00,,---,0.00,VWS V14.00,2013-03-02 08:19:00,
2013-03-02 02:21:00,20.5,1.6,30.35,North,354,0.0,0.0,43,0.00,,---,0.00,VWS V14.00,2013-03-02 08:21:00,
2013-03-02 02:23:00,20.3,1.4,30.35,North,354,0.0,0.0,43,0.00,,---,0.00,VWS V14.00,2013-03-02 08:23:00,
2013-03-02 02:24:00,20.3,1.4,30.35,North,354,0.0,0.0,43,0.00,,---,0.00,VWS V14.00,2013-03-02 08:24:00,
2013-03-02 02:26:00,20.3,2.4,30.35,North,354,0.0,0.0,45,0.00,,---,0.00,VWS V14.00,2013-03-02 08:26:00,
2013-03-02 02:28:00,20.5,2.1,30.35,North,354,0.0,0.0,44,0.00,,---,0.00,VWS V14.00,2013-03-02 08:28:00,
2013-03-02 02:29:00,20.6,1.7,30.35,North,354,0.0,0.0,43,0.00,,---,0.00,VWS V14.00,2013-03-02 08:29:00,
2013-03-02 02:31:00,20.5,1.6,30.35,North,354,0.0,0.0,43,0.00,,---,0.00,VWS V14.00,2013-03-02 08:31:00,
2013-03-02 02:33:00,20.3,1.4,30.35,North,354,0.0,0.0,43,0.00,,---,0.00,VWS V14.00,2013-03-02 08:33:00,
2013-03-02 02:34:00,20.3,1.4,30.35,North,354,0.0,0.0,43,0.00,,---,0.00,VWS V14.00,2013-03-02 08:34:00,
2013-03-02 02:36:00,20.2,2.3,30.35,North,354,0.0,0.0,45,0.00,,---,0.00,VWS V14.00,2013-03-02 08:36:00,
2013-03-02 02:38:00,20.2,2.3,30.35,North,354,0.0,0.0,45,0.00,,---,0.00,VWS V14.00,2013-03-02 08:38:00,
2013-03-02 02:39:00,20.2,1.8,30.35,North,354,0.0,0.0,44,0.00,,---,0.00,VWS V14.00,2013-03-02 08:39:00,
2013-03-02 02:41:00,20.2,1.8,30.35,North,354,0.0,0.0,44,0.00,,---,0.00,VWS V14.00,2013-03-02 08:41:00,
2013-03-02 02:43:00,20.2,1.8,30.35,North,354,0.0,0.0,44,0.00,,---,0.00,VWS V14.00,2013-03-02 08:43:00,
2013-03-02 02:44:00,20.2,2.3,30.35,North,354,0.0,0.0,45,0.00,,---,0.00,VWS V14.00,2013-03-02 08:44:00,
2013-03-02 02:47:00,20.2,2.3,30.35,North,354,0.0,0.0,45,0.00,,---,0.00,VWS V14.00,2013-03-02 08:47:00,
2013-03-02 02:48:00,20.3,2.8,30.35,North,354,0.0,0.0,46,0.00,,---,0.00,VWS V14.00,2013-03-02 08:48:00,
2013-03-02 02:49:00,20.5,3.0,30.35,North,354,0.0,0.0,46,0.00,,---,0.00,VWS V14.00,2013-03-02 08:49:00,
2013-03-02 02:52:00,20.5,2.5,30.35,North,354,0.0,0.0,45,0.00,,---,0.00,VWS V14.00,2013-03-02 08:52:00,
2013-03-02 02:53:00,20.3,2.8,30.35,North,354,0.0,0.0,46,0.00,,---,0.00,VWS V14.00,2013-03-02 08:53:00,
2013-03-02 02:54:00,20.3,2.4,30.35,North,354,0.0,0.0,45,0.00,,---,0.00,VWS V14.00,2013-03-02 08:54:00,
2013-03-02 02:55:00,20.3,2.4,30.35,North,354,0.0,0.0,45,0.00,,---,0.00,VWS V14.00,2013-03-02 08:55:00,
2013-03-02 02:57:00,20.3,2.4,30.35,North,354,0.0,0.0,45,0.00,,---,0.00,VWS V14.00,2013-03-02 08:57:00,
2013-03-02 02:58:00,20.2,2.3,30.35,North,354,0.0,0.0,45,0.00,,---,0.00,VWS V14.00,2013-03-02 08:58:00,
2013-03-02 02:59:00,20.2,2.3,30.36,North,354,0.0,0.0,45,0.00,,---,0.00,VWS V14.00,2013-03-02 08:59:00,
2013-03-02 03:00:00,20.2,2.7,30.36,North,354,0.0,0.0,46,0.00,,---,0.00,VWS V14.00,2013-03-02 09:00:00,
2013-03-02 03:02:00,20.3,2.8,30.36,North,354,0.0,0.0,46,0.00,,---,0.00,VWS V14.00,2013-03-02 09:02:00,
2013-03-02 03:04:00,20.3,1.9,30.36,North,354,0.0,0.0,44,0.00,,---,0.00,VWS V14.00,2013-03-02 09:04:00,
2013-03-02 03:05:00,20.3,1.9,30.36,North,354,0.0,0.0,44,0.00,,---,0.00,VWS V14.00,2013-03-02 09:05:00,
2013-03-02 03:07:00,20.3,2.4,30.36,North,354,0.0,0.0,45,0.00,,---,0.00,VWS V14.00,2013-03-02 09:07:00,
2013-03-02 03:09:00,20.3,2.4,30.36,North,354,0.0,0.0,45,0.00,,---,0.00,VWS V14.00,2013-03-02 09:09:00,
2013-03-02 03:10:00,20.3,2.4,30.36,North,354,0.0,0.0,45,0.00,,---,0.00,VWS V14.00,2013-03-02 09:10:00,
2013-03-02 03:12:00,20.5,2.1,30.36,North,354,0.0,0.0,44,0.00,,---,0.00,VWS V14.00,2013-03-02 09:12:00,
2013-03-02 03:14:00,20.5,2.1,30.36,North,354,0.0,0.0,44,0.00,,---,0.00,VWS V14.00,2013-03-02 09:14:00,
2013-03-02 03:15:00,20.5,1.6,30.34,North,354,0.0,0.0,43,0.00,,---,0.00,VWS V14.00,2013-03-02 09:15:00,
2013-03-02 03:17:00,20.3,2.8,30.34,North,354,0.0,0.0,46,0.00,,---,0.00,VWS V14.00,2013-03-02 09:17:00,
2013-03-02 03:19:00,20.3,2.4,30.34,North,354,0.0,0.0,45,0.00,,---,0.00,VWS V14.00,2013-03-02 09:19:00,
2013-03-02 03:20:00,20.5,2.5,30.34,North,354,0.0,0.0,45,0.00,,---,0.00,VWS V14.00,2013-03-02 09:20:00,
2013-03-02 03:23:00,19.9,1.0,30.34,North,354,0.0,0.0,43,0.00,,---,0.00,VWS V14.00,2013-03-02 09:23:00,
2013-03-02 03:24:00,19.9,2.0,30.34,North,354,0.0,0.0,45,0.00,,---,0.00,VWS V14.00,2013-03-02 09:24:00,
2013-03-02 03:25:00,19.9,2.0,30.34,North,354,0.0,0.0,45,0.00,,---,0.00,VWS V14.00,2013-03-02 09:25:00,
2013-03-02 03:28:00,19.9,1.5,30.34,North,354,0.0,0.0,44,0.00,,---,0.00,VWS V14.00,2013-03-02 09:28:00,
2013-03-02 03:29:00,19.7,1.3,30.35,North,354,0.0,0.0,44,0.00,,---,0.00,VWS V14.00,2013-03-02 09:29:00,
2013-03-02 03:30:00,19.7,1.3,30.35,North,354,0.0,0.0,44,0.00,,---,0.00,VWS V14.00,2013-03-02 09:30:00,
2013-03-02 03:33:00,19.5,1.6,30.35,North,354,0.0,0.0,45,0.00,,---,0.00,VWS V14.00,2013-03-02 09:33:00,
2013-03-02 03:34:00,19.5,1.6,30.35,North,354,0.0,0.0,45,0.00,,---,0.00,VWS V14.00,2013-03-02 09:34:00,
2013-03-02 03:35:00,19.5,1.6,30.35,North,354,0.0,0.0,45,0.00,,---,0.00,VWS V14.00,2013-03-02 09:35:00,
2013-03-02 03:38:00,19.7,2.3,30.35,North,354,0.0,0.0,46,0.00,,---,0.00,VWS V14.00,2013-03-02 09:38:00,
2013-03-02 03:39:00,19.5,2.1,30.35,North,354,0.0,0.0,46,0.00,,---,0.00,VWS V14.00,2013-03-02 09:39:00,
2013-03-02 03:40:00,19.5,2.1,30.35,North,354,0.0,0.0,46,0.00,,---,0.00,VWS V14.00,2013-03-02 09:40:00,
2013-03-02 03:41:00,19.5,2.1,30.35,North,354,0.0,0.0,46,0.00,,---,0.00,VWS V14.00,2013-03-02 09:41:00,
2013-03-02 03:43:00,19.5,2.1,30.35,North,354,0.0,0.0,46,0.00,,---,0.00,VWS V14.00,2013-03-02 09:43:00,
2013-03-02 03:45:00,19.5,2.1,30.35,North,354,0.0,0.0,46,0.00,,---,0.00,VWS V14.00,2013-03-02 09:45:00,
2013-03-02 03:46:00,19.4,2.5,30.35,North,354,0.0,0.0,47,0.00,,---,0.00,VWS V14.00,2013-03-02 09:46:00,
2013-03-02 03:48:00,19.4,2.0,30.35,North,354,0.0,0.0,46,0.00,,---,0.00,VWS V14.00,2013-03-02 09:48:00,
2013-03-02 03:50:00,19.4,2.0,30.35,North,354,0.0,0.0,46,0.00,,---,0.00,VWS V14.00,2013-03-02 09:50:00,
2013-03-02 03:51:00,19.4,2.5,30.35,North,354,0.0,0.0,47,0.00,,---,0.00,VWS V14.00,2013-03-02 09:51:00,
2013-03-02 03:53:00,19.2,1.8,30.35,North,354,0.0,0.0,46,0.00,,---,0.00,VWS V14.00,2013-03-02 09:53:00,
2013-03-02 03:55:00,19.2,1.8,30.35,North,354,0.0,0.0,46,0.00,,---,0.00,VWS V14.00,2013-03-02 09:55:00,
2013-03-02 03:56:00,19.1,1.7,30.35,North,354,0.0,0.0,46,0.00,,---,0.00,VWS V14.00,2013-03-02 09:56:00,
2013-03-02 03:58:00,18.9,1.5,30.35,North,354,0.0,0.0,46,0.00,,---,0.00,VWS V14.00,2013-03-02 09:58:00,
2013-03-02 04:00:00,18.9,2.0,30.36,North,354,0.0,0.0,47,0.00,,---,0.00,VWS V14.00,2013-03-02 10:00:00,
2013-03-02 04:01:00,18.8,1.9,30.36,North,354,0.0,0.0,47,0.00,,---,0.00,VWS V14.00,2013-03-02 10:01:00,
2013-03-02 04:03:00,18.8,1.9,30.36,North,354,0.0,0.0,47,0.00,,---,0.00,VWS V14.00,2013-03-02 10:03:00,
2013-03-02 04:05:00,18.8,1.9,30.36,North,354,0.0,0.0,47,0.00,,---,0.00,VWS V14.00,2013-03-02 10:05:00,
2013-03-02 04:07:00,18.6,2.2,30.36,North,354,0.0,0.0,48,0.00,,---,0.00,VWS V14.00,2013-03-02 10:07:00,
2013-03-02 04:11:00,18.4,1.1,30.36,North,354,0.0,0.0,46,0.00,,---,0.00,VWS V14.00,2013-03-02 10:11:00,
2013-03-02 04:12:00,18.3,1.9,30.36,North,354,0.0,0.0,48,0.00,,---,0.00,VWS V14.00,2013-03-02 10:12:00,
2013-03-02 04:16:00,18.4,2.0,30.37,North,354,0.0,0.0,48,0.00,,---,0.00,VWS V14.00,2013-03-02 10:16:00,
2013-03-02 04:17:00,18.6,2.2,30.37,North,354,0.0,0.0,48,0.00,,---,0.00,VWS V14.00,2013-03-02 10:17:00,
2013-03-02 04:21:00,18.6,2.6,30.37,North,354,0.0,0.0,49,0.00,,---,0.00,VWS V14.00,2013-03-02 10:21:00,
2013-03-02 04:22:00,18.4,2.4,30.37,North,354,0.0,0.0,49,0.00,,---,0.00,VWS V14.00,2013-03-02 10:22:00,
2013-03-02 04:23:00,18.4,2.0,30.37,North,354,0.0,0.0,48,0.00,,---,0.00,VWS V14.00,2013-03-02 10:23:00,
2013-03-02 04:26:00,18.4,2.0,30.37,North,354,0.0,0.0,48,0.00,,---,0.00,VWS V14.00,2013-03-02 10:26:00,
2013-03-02 04:27:00,18.4,2.0,30.37,North,354,0.0,0.0,48,0.00,,---,0.00,VWS V14.00,2013-03-02 10:27:00,
2013-03-02 04:28:00,18.3,1.9,30.37,North,354,0.0,0.0,48,0.00,,---,0.00,VWS V14.00,2013-03-02 10:28:00,
2013-03-02 04:31:00,18.1,1.7,30.37,North,354,0.0,0.0,48,0.00,,---,0.00,VWS V14.00,2013-03-02 10:31:00,
2013-03-02 04:32:00,18.1,2.2,30.37,North,354,0.0,0.0,49,0.00,,---,0.00,VWS V14.00,2013-03-02 10:32:00,
2013-03-02 04:33:00,18.1,2.2,30.37,North,354,0.0,0.0,49,0.00,,---,0.00,VWS V14.00,2013-03-02 10:33:00,
2013-03-02 04:36:00,18.1,2.2,30.37,North,354,0.0,0.0,49,0.00,,---,0.00,VWS V14.00,2013-03-02 10:36:00,
2013-03-02 04:38:00,18.1,1.7,30.37,North,354,0.0,0.0,48,0.00,,---,0.00,VWS V14.00,2013-03-02 10:38:00,
2013-03-02 04:41:00,18.0,1.6,30.37,North,354,0.0,0.0,48,0.00,,---,0.00,VWS V14.00,2013-03-02 10:41:00,
2013-03-02 04:43:00,18.0,1.6,30.37,North,354,0.0,0.0,48,0.00,,---,0.00,VWS V14.00,2013-03-02 10:43:00,
2013-03-02 04:46:00,18.0,1.6,30.37,North,354,0.0,0.0,48,0.00,,---,0.00,VWS V14.00,2013-03-02 10:46:00,
2013-03-02 04:48:00,18.0,1.6,30.37,North,354,0.0,0.0,48,0.00,,---,0.00,VWS V14.00,2013-03-02 10:48:00,
2013-03-02 04:51:00,17.8,1.5,30.37,North,354,0.0,0.0,48,0.00,,---,0.00,VWS V14.00,2013-03-02 10:51:00,
2013-03-02 04:52:00,17.8,1.5,30.37,North,354,0.0,0.0,48,0.00,,---,0.00,VWS V14.00,2013-03-02 10:52:00,
2013-03-02 04:53:00,17.7,1.4,30.37,North,354,0.0,0.0,48,0.00,,---,0.00,VWS V14.00,2013-03-02 10:53:00,
2013-03-02 04:54:00,17.7,1.4,30.37,North,354,0.0,0.0,48,0.00,,---,0.00,VWS V14.00,2013-03-02 10:54:00,
2013-03-02 04:56:00,17.7,1.8,30.37,North,354,0.0,0.0,49,0.00,,---,0.00,VWS V14.00,2013-03-02 10:56:00,
2013-03-02 04:57:00,17.7,1.8,30.37,North,354,0.0,0.0,49,0.00,,---,0.00,VWS V14.00,2013-03-02 10:57:00,
2013-03-02 04:58:00,17.7,1.8,30.37,North,354,0.0,0.0,49,0.00,,---,0.00,VWS V14.00,2013-03-02 10:58:00,
2013-03-02 04:59:00,17.7,1.8,30.38,North,354,0.0,0.0,49,0.00,,---,0.00,VWS V14.00,2013-03-02 10:59:00,
2013-03-02 05:02:00,17.7,1.8,30.38,North,354,0.0,0.0,49,0.00,,---,0.00,VWS V14.00,2013-03-02 11:02:00,
2013-03-02 05:03:00,17.7,1.8,30.38,North,354,0.0,0.0,49,0.00,,---,0.00,VWS V14.00,2013-03-02 11:03:00,
2013-03-02 05:04:00,17.5,1.6,30.38,North,354,0.0,0.0,49,0.00,,---,0.00,VWS V14.00,2013-03-02 11:04:00,
2013-03-02 05:07:00,17.5,1.6,30.38,North,354,0.0,0.0,49,0.00,,---,0.00,VWS V14.00,2013-03-02 11:07:00,
2013-03-02 05:08:00,17.3,1.4,30.38,North,354,0.0,0.0,49,0.00,,---,0.00,VWS V14.00,2013-03-02 11:08:00,
2013-03-02 05:09:00,17.3,1.4,30.38,North,354,0.0,0.0,49,0.00,,---,0.00,VWS V14.00,2013-03-02 11:09:00,
2013-03-02 05:12:00,17.3,1.9,30.38,North,354,0.0,0.0,50,0.00,,---,0.00,VWS V14.00,2013-03-02 11:12:00,
2013-03-02 05:13:00,17.2,1.3,30.38,North,354,0.0,0.0,49,0.00,,---,0.00,VWS V14.00,2013-03-02 11:13:00,
2013-03-02 05:14:00,17.2,1.3,30.39,North,354,0.0,0.0,49,0.00,,---,0.00,VWS V14.00,2013-03-02 11:14:00,
2013-03-02 05:17:00,17.2,1.3,30.39,North,354,0.0,0.0,49,0.00,,---,0.00,VWS V14.00,2013-03-02 11:17:00,
2013-03-02 05:18:00,17.2,1.8,30.39,North,354,0.0,0.0,50,0.00,,---,0.00,VWS V14.00,2013-03-02 11:18:00,
2013-03-02 05:19:00,17.2,1.3,30.39,North,354,0.0,0.0,49,0.00,,---,0.00,VWS V14.00,2013-03-02 11:19:00,
2013-03-02 05:22:00,17.0,1.1,30.39,North,354,0.0,0.0,49,0.00,,---,0.00,VWS V14.00,2013-03-02 11:22:00,
2013-03-02 05:24:00,17.0,1.6,30.39,North,354,0.0,0.0,50,0.00,,---,0.00,VWS V14.00,2013-03-02 11:24:00,
2013-03-02 05:27:00,17.2,2.2,30.39,North,354,0.0,0.0,51,0.00,,---,0.00,VWS V14.00,2013-03-02 11:27:00,
2013-03-02 05:29:00,17.2,2.6,30.39,North,354,0.0,0.0,52,0.00,,---,0.00,VWS V14.00,2013-03-02 11:29:00,
2013-03-02 05:30:00,17.2,2.6,30.40,North,354,0.0,0.0,52,0.00,,---,0.00,VWS V14.00,2013-03-02 11:30:00,
2013-03-02 05:32:00,17.2,2.2,30.40,North,354,0.0,0.0,51,0.00,,---,0.00,VWS V14.00,2013-03-02 11:32:00,
2013-03-02 05:34:00,17.2,2.2,30.40,North,354,0.0,0.0,51,0.00,,---,0.00,VWS V14.00,2013-03-02 11:34:00,
2013-03-02 05:35:00,17.2,2.2,30.40,North,354,0.0,0.0,51,0.00,,---,0.00,VWS V14.00,2013-03-02 11:35:00,
2013-03-02 05:37:00,17.3,1.9,30.40,North,354,0.0,0.0,50,0.00,,---,0.00,VWS V14.00,2013-03-02 11:37:00,
2013-03-02 05:38:00,17.3,1.9,30.40,North,354,0.0,0.0,50,0.00,,---,0.00,VWS V14.00,2013-03-02 11:38:00,
2013-03-02 05:39:00,17.3,1.9,30.40,North,354,0.0,0.0,50,0.00,,---,0.00,VWS V14.00,2013-03-02 11:39:00,
2013-03-02 05:40:00,17.2,2.2,30.40,North,354,0.0,0.0,51,0.00,,---,0.00,VWS V14.00,2013-03-02 11:40:00,
2013-03-02 05:43:00,17.2,1.8,30.40,North,354,0.0,0.0,50,0.00,,---,0.00,VWS V14.00,2013-03-02 11:43:00,
2013-03-02 05:44:00,17.3,2.3,30.40,North,354,0.0,0.0,51,0.00,,---,0.00,VWS V14.00,2013-03-02 11:44:00,
2013-03-02 05:45:00,17.3,2.3,30.40,North,354,0.0,0.0,51,0.00,,---,0.00,VWS V14.00,2013-03-02 11:45:00,
2013-03-02 05:48:00,17.5,2.0,30.40,North,354,0.0,0.0,50,0.00,,---,0.00,VWS V14.00,2013-03-02 11:48:00,
2013-03-02 05:49:00,17.5,2.0,30.40,North,354,0.0,0.0,50,0.00,,---,0.00,VWS V14.00,2013-03-02 11:49:00,
2013-03-02 05:50:00,17.5,2.0,30.40,North,354,0.0,0.0,50,0.00,,---,0.00,VWS V14.00,2013-03-02 11:50:00,
2013-03-02 05:53:00,17.5,2.0,30.40,North,354,0.0,0.0,50,0.00,,---,0.00,VWS V14.00,2013-03-02 11:53:00,
2013-03-02 05:54:00,17.5,2.0,30.40,North,354,0.0,0.0,50,0.00,,---,0.00,VWS V14.00,2013-03-02 11:54:00,
2013-03-02 05:55:00,17.5,2.0,30.40,North,354,0.0,0.0,50,0.00,,---,0.00,VWS V14.00,2013-03-02 11:55:00,
2013-03-02 05:58:00,17.2,1.8,30.40,North,354,0.0,0.0,50,0.00,,---,0.00,VWS V14.00,2013-03-02 11:58:00,
2013-03-02 05:59:00,17.2,1.8,30.41,North,354,0.0,0.0,50,0.00,,---,0.00,VWS V14.00,2013-03-02 11:59:00,
2013-03-02 06:00:00,17.2,1.8,30.41,North,354,0.0,0.0,50,0.00,,---,0.00,VWS V14.00,2013-03-02 12:00:00,
2013-03-02 06:03:00,17.2,2.2,30.41,North,354,0.0,0.0,51,0.00,,---,0.00,VWS V14.00,2013-03-02 12:03:00,
2013-03-02 06:04:00,17.2,2.2,30.41,North,354,0.0,0.0,51,0.00,,---,0.00,VWS V14.00,2013-03-02 12:04:00,
2013-03-02 06:05:00,17.0,2.0,30.41,North,354,0.0,0.0,51,0.00,,---,0.00,VWS V14.00,2013-03-02 12:05:00,
2013-03-02 06:08:00,17.0,2.4,30.41,North,354,0.0,0.0,52,0.00,,---,0.00,VWS V14.00,2013-03-02 12:08:00,
2013-03-02 06:09:00,17.0,2.4,30.41,North,354,0.0,0.0,52,0.00,,---,0.00,VWS V14.00,2013-03-02 12:09:00,
2013-03-02 06:10:00,17.0,2.0,30.41,North,354,0.0,0.0,51,0.00,,---,0.00,VWS V14.00,2013-03-02 12:10:00,
2013-03-02 06:13:00,16.9,2.3,30.41,North,354,0.0,0.0,52,0.00,,---,0.00,VWS V14.00,2013-03-02 12:13:00,
2013-03-02 06:14:00,16.9,2.3,30.44,North,354,0.0,0.0,52,0.00,,---,0.00,VWS V14.00,2013-03-02 12:14:00,
2013-03-02 06:16:00,16.9,1.9,30.44,North,354,0.0,0.0,51,0.00,,---,0.00,VWS V14.00,2013-03-02 12:16:00,
2013-03-02 06:18:00,16.7,2.1,30.44,North,354,0.0,0.0,52,0.00,,---,0.00,VWS V14.00,2013-03-02 12:18:00,
2013-03-02 06:19:00,16.7,2.1,30.44,North,354,0.0,0.0,52,0.00,,---,0.00,VWS V14.00,2013-03-02 12:19:00,
2013-03-02 06:21:00,16.7,2.1,30.44,North,354,0.0,0.0,52,0.00,,---,0.00,VWS V14.00,2013-03-02 12:21:00,
2013-03-02 06:24:00,16.7,2.1,30.44,North,354,0.0,0.0,52,0.00,,---,0.00,VWS V14.00,2013-03-02 12:24:00,
2013-03-02 06:26:00,16.9,2.3,30.44,North,354,0.0,0.0,52,0.00,,---,0.00,VWS V14.00,2013-03-02 12:26:00,
2013-03-02 06:29:00,16.9,1.9,30.44,North,354,0.0,0.0,51,0.00,,---,0.00,VWS V14.00,2013-03-02 12:29:00,
2013-03-02 06:30:00,16.9,1.9,30.44,North,354,0.0,0.0,51,0.00,,---,0.00,VWS V14.00,2013-03-02 12:30:00,
2013-03-02 06:31:00,16.9,1.9,30.44,North,354,0.0,0.0,51,0.00,,---,0.00,VWS V14.00,2013-03-02 12:31:00,
2013-03-02 06:34:00,17.0,2.4,30.44,North,354,0.0,0.0,52,0.00,,---,0.00,VWS V14.00,2013-03-02 12:34:00,
2013-03-02 06:35:00,16.9,1.5,30.44,North,354,0.0,0.0,50,0.00,,---,0.00,VWS V14.00,2013-03-02 12:35:00,
2013-03-02 06:36:00,16.9,1.5,30.44,North,354,0.0,0.0,50,0.00,,---,0.00,VWS V14.00,2013-03-02 12:36:00,
2013-03-02 06:39:00,16.9,2.3,30.44,North,354,0.0,0.0,52,0.00,,---,0.00,VWS V14.00,2013-03-02 12:39:00,
2013-03-02 06:40:00,16.9,2.3,30.44,North,354,0.0,0.0,52,0.00,,---,0.00,VWS V14.00,2013-03-02 12:40:00,
2013-03-02 06:41:00,16.9,2.3,30.44,North,354,0.0,0.0,52,0.00,,---,0.00,VWS V14.00,2013-03-02 12:41:00,
2013-03-02 06:44:00,16.7,1.7,30.45,North,354,0.0,0.0,51,0.00,,---,0.00,VWS V14.00,2013-03-02 12:44:00,
2013-03-02 06:45:00,16.7,1.7,30.45,North,354,0.0,0.0,51,0.00,,---,0.00,VWS V14.00,2013-03-02 12:45:00,
2013-03-02 06:46:00,16.7,2.1,30.45,North,354,0.0,0.0,52,0.00,,---,0.00,VWS V14.00,2013-03-02 12:46:00,
2013-03-02 06:49:00,16.5,2.0,30.45,North,354,0.0,0.0,52,0.00,,---,0.00,VWS V14.00,2013-03-02 12:49:00,
2013-03-02 06:50:00,16.5,2.0,30.45,North,354,0.0,0.0,52,0.00,,---,0.00,VWS V14.00,2013-03-02 12:50:00,
2013-03-02 06:51:00,16.5,2.4,30.45,North,354,0.0,0.0,53,0.00,,---,0.00,VWS V14.00,2013-03-02 12:51:00,
2013-03-02 06:54:00,16.5,2.4,30.45,North,354,0.0,0.0,53,0.00,,---,0.00,VWS V14.00,2013-03-02 12:54:00,
2013-03-02 06:55:00,16.5,2.4,30.45,North,354,0.0,0.0,53,0.00,,---,0.00,VWS V14.00,2013-03-02 12:55:00,
2013-03-02 06:56:00,16.5,2.0,30.45,North,354,0.0,0.0,52,0.00,,---,0.00,VWS V14.00,2013-03-02 12:56:00,
2013-03-02 06:59:00,16.4,2.3,30.47,North,354,0.0,0.0,53,0.00,,---,0.00,VWS V14.00,2013-03-02 12:59:00,
2013-03-02 07:00:00,16.4,2.3,30.47,North,354,0.0,0.0,53,0.00,,---,0.00,VWS V14.00,2013-03-02 13:00:00,
2013-03-02 07:01:00,16.4,2.3,30.47,North,354,0.0,0.0,53,0.00,,---,0.00,VWS V14.00,2013-03-02 13:01:00,
2013-03-02 07:04:00,16.4,2.3,30.47,North,354,0.0,0.0,53,0.00,,---,0.00,VWS V14.00,2013-03-02 13:04:00,
2013-03-02 07:05:00,16.4,2.7,30.47,North,354,0.0,0.0,54,0.00,,---,0.00,VWS V14.00,2013-03-02 13:05:00,
2013-03-02 07:06:00,16.4,2.7,30.47,North,354,0.0,0.0,54,0.00,,---,0.00,VWS V14.00,2013-03-02 13:06:00,
2013-03-02 07:09:00,16.5,2.4,30.47,North,354,0.0,0.0,53,0.00,,---,0.00,VWS V14.00,2013-03-02 13:09:00,
2013-03-02 07:10:00,16.5,2.4,30.47,North,354,0.0,0.0,53,0.00,,---,0.00,VWS V14.00,2013-03-02 13:10:00,
2013-03-02 07:11:00,16.5,2.0,30.47,North,354,0.0,0.0,52,0.00,,---,0.00,VWS V14.00,2013-03-02 13:11:00,
2013-03-02 07:14:00,16.4,2.3,30.52,North,354,0.0,0.0,53,0.00,,---,0.00,VWS V14.00,2013-03-02 13:14:00,
2013-03-02 07:15:00,16.4,1.9,30.52,North,354,0.0,0.0,52,0.00,,---,0.00,VWS V14.00,2013-03-02 13:15:00,
2013-03-02 07:16:00,16.2,1.7,30.52,North,354,0.0,0.0,52,0.00,,---,0.00,VWS V14.00,2013-03-02 13:16:00,
2013-03-02 07:19:00,16.1,2.4,30.52,North,354,0.0,0.0,54,0.00,,---,0.00,VWS V14.00,2013-03-02 13:19:00,
2013-03-02 07:20:00,16.1,2.4,30.52,North,354,0.0,0.0,54,0.00,,---,0.00,VWS V14.00,2013-03-02 13:20:00,
2013-03-02 07:21:00,16.1,2.4,30.52,North,354,0.0,0.0,54,0.00,,---,0.00,VWS V14.00,2013-03-02 13:21:00,
2013-03-02 07:22:00,16.1,2.4,30.52,North,354,0.0,0.0,54,0.00,,---,0.00,VWS V14.00,2013-03-02 13:22:00,
2013-03-02 07:24:00,15.9,1.8,30.52,North,354,0.0,0.0,53,0.00,,---,0.00,VWS V14.00,2013-03-02 13:24:00,
2013-03-02 07:25:00,15.7,1.6,30.52,North,354,0.0,0.0,53,0.00,,---,0.00,VWS V14.00,2013-03-02 13:25:00,
2013-03-02 07:27:00,15.7,2.0,30.52,North,354,0.0,0.0,54,0.00,,---,0.00,VWS V14.00,2013-03-02 13:27:00,
2013-03-02 07:30:00,15.9,2.2,30.53,North,354,0.0,0.0,54,0.00,,---,0.00,VWS V14.00,2013-03-02 13:30:00,
2013-03-02 07:31:00,15.9,2.2,30.53,North,354,0.0,0.0,54,0.00,,---,0.00,VWS V14.00,2013-03-02 13:31:00,
2013-03-02 07:32:00,16.1,2.8,30.53,North,354,0.0,0.0,55,0.00,,---,0.00,VWS V14.00,2013-03-02 13:32:00,
2013-03-02 07:35:00,16.1,2.4,30.53,North,354,0.0,0.0,54,0.00,,---,0.00,VWS V14.00,2013-03-02 13:35:00,
2013-03-02 07:36:00,16.2,2.9,30.53,North,354,0.0,0.0,55,0.00,,---,0.00,VWS V14.00,2013-03-02 13:36:00,
2013-03-02 07:37:00,16.4,3.1,30.53,North,354,0.0,0.0,55,0.00,,---,0.00,VWS V14.00,2013-03-02 13:37:00,
2013-03-02 07:38:00,16.4,3.1,30.53,North,354,0.0,0.0,55,0.00,,---,0.00,VWS V14.00,2013-03-02 13:38:00,
2013-03-02 07:40:00,16.5,3.2,30.53,North,354,0.0,0.0,55,0.00,,---,0.00,VWS V14.00,2013-03-02 13:40:00,
2013-03-02 07:41:00,16.5,2.8,30.53,North,354,0.0,0.0,54,0.00,,---,0.00,VWS V14.00,2013-03-02 13:41:00,
2013-03-02 07:42:00,16.5,2.8,30.53,North,354,0.0,0.0,54,0.00,,---,0.00,VWS V14.00,2013-03-02 13:42:00,
2013-03-02 07:43:00,16.7,3.0,30.53,North,354,0.0,0.0,54,0.00,,---,0.00,VWS V14.00,2013-03-02 13:43:00,
2013-03-02 07:45:00,16.7,3.0,30.53,North,354,0.0,0.0,54,0.00,,---,0.00,VWS V14.00,2013-03-02 13:45:00,
2013-03-02 07:46:00,16.9,3.1,30.53,North,354,0.0,0.0,54,0.00,,---,0.00,VWS V14.00,2013-03-02 13:46:00,
2013-03-02 07:48:00,17.0,3.6,30.53,North,354,0.0,0.0,55,0.00,,---,0.00,VWS V14.00,2013-03-02 13:48:00,
2013-03-02 07:50:00,17.0,3.6,30.53,North,354,0.0,0.0,55,0.00,,---,0.00,VWS V14.00,2013-03-02 13:50:00,
2013-03-02 07:51:00,17.0,3.6,30.53,North,354,0.0,0.0,55,0.00,,---,0.00,VWS V14.00,2013-03-02 13:51:00,
2013-03-02 07:53:00,17.2,3.8,30.53,North,354,0.0,0.0,55,0.00,,---,0.00,VWS V14.00,2013-03-02 13:53:00,
2013-03-02 07:55:00,17.3,3.9,30.53,North,354,0.0,0.0,55,0.00,,---,0.00,VWS V14.00,2013-03-02 13:55:00,
2013-03-02 07:56:00,17.5,3.7,30.53,North,354,0.0,0.0,54,0.00,,---,0.00,VWS V14.00,2013-03-02 13:56:00,
2013-03-02 07:58:00,17.7,3.9,30.53,North,354,0.0,0.0,54,0.00,,---,0.00,VWS V14.00,2013-03-02 13:58:00,
2013-03-02 08:00:00,17.8,4.0,30.53,North,354,0.0,0.0,54,0.00,,---,0.00,VWS V14.00,2013-03-02 14:00:00,
2013-03-02 08:02:00,18.1,4.3,30.53,North,354,0.0,0.0,54,0.00,,---,0.00,VWS V14.00,2013-03-02 14:02:00,
2013-03-02 08:03:00,18.3,4.8,30.53,North,354,0.0,0.0,55,0.00,,---,0.00,VWS V14.00,2013-03-02 14:03:00,
2013-03-02 08:05:00,19.5,6.4,30.53,North,354,0.0,0.0,56,0.00,,---,0.00,VWS V14.00,2013-03-02 14:05:00,
2013-03-02 08:07:00,19.9,6.8,30.53,North,354,0.0,0.0,56,0.00,,---,0.00,VWS V14.00,2013-03-02 14:07:00,
2013-03-02 08:08:00,20.2,6.2,30.53,North,354,0.0,0.0,54,0.00,,---,0.00,VWS V14.00,2013-03-02 14:08:00,
2013-03-02 08:09:00,20.6,6.6,30.53,North,354,0.0,0.0,54,0.00,,---,0.00,VWS V14.00,2013-03-02 14:09:00,
2013-03-02 08:10:00,21.3,7.3,30.53,North,354,0.0,0.0,54,0.00,,---,0.00,VWS V14.00,2013-03-02 14:10:00,
2013-03-02 08:12:00,22.1,8.4,30.53,North,354,0.0,0.0,55,0.00,,---,0.00,VWS V14.00,2013-03-02 14:12:00,
2013-03-02 08:13:00,22.5,8.4,30.53,North,354,0.0,0.0,54,0.00,,---,0.00,VWS V14.00,2013-03-02 14:13:00,
2013-03-02 08:14:00,22.7,8.6,30.53,North,354,0.0,0.0,54,0.00,,---,0.00,VWS V14.00,2013-03-02 14:14:00,
2013-03-02 08:15:00,23.0,8.9,30.55,North,354,0.0,0.0,54,0.00,,---,0.00,VWS V14.00,2013-03-02 14:15:00,
2013-03-02 08:17:00,24.5,10.2,30.55,NNW,347,0.0,0.0,54,0.00,,---,0.00,VWS V14.00,2013-03-02 14:17:00,
2013-03-02 08:18:00,25.3,9.7,30.55,NNW,347,0.0,0.0,51,0.00,,---,0.00,VWS V14.00,2013-03-02 14:18:00,
2013-03-02 08:19:00,25.1,9.5,30.55,NNW,347,0.0,0.0,51,0.00,,---,0.00,VWS V14.00,2013-03-02 14:19:00,
2013-03-02 08:20:00,25.6,9.6,30.55,NNW,347,0.0,0.0,50,0.00,,---,0.00,VWS V14.00,2013-03-02 14:20:00,
2013-03-02 08:22:00,27.0,10.9,30.55,NNW,347,0.0,0.0,50,0.00,,---,0.00,VWS V14.00,2013-03-02 14:22:00,
2013-03-02 08:23:00,27.9,10.8,30.55,NNW,346,0.0,0.0,48,0.00,,---,0.00,VWS V14.00,2013-03-02 14:23:00,
2013-03-02 08:24:00,28.5,10.9,30.55,NNW,347,0.0,0.0,47,0.00,,---,0.00,VWS V14.00,2013-03-02 14:24:00,
2013-03-02 08:25:00,29.0,11.3,30.55,NNW,347,0.0,0.0,47,0.00,,---,0.00,VWS V14.00,2013-03-02 14:25:00,
2013-03-02 08:27:00,29.4,10.7,30.55,NNW,347,0.0,0.0,45,0.00,,---,0.00,VWS V14.00,2013-03-02 14:27:00,
2013-03-02 08:28:00,29.8,11.1,30.55,NNW,347,0.0,0.0,45,0.00,,---,0.00,VWS V14.00,2013-03-02 14:28:00,
2013-03-02 08:29:00,30.1,10.8,30.50,NNW,347,0.0,0.0,44,0.00,,---,0.00,VWS V14.00,2013-03-02 14:29:00,
2013-03-02 08:30:00,30.6,10.2,30.50,NNW,347,0.0,0.0,42,0.00,,---,0.00,VWS V14.00,2013-03-02 14:30:00,
2013-03-02 08:32:00,31.5,10.5,30.50,NNW,347,0.0,0.0,41,0.00,,---,0.00,VWS V14.00,2013-03-02 14:32:00,
2013-03-02 08:34:00,31.9,10.3,30.50,NNW,347,0.0,0.0,40,0.00,,---,0.00,VWS V14.00,2013-03-02 14:34:00,
2013-03-02 08:35:00,32.5,10.9,30.50,NNW,347,0.0,0.0,40,0.00,,---,0.00,VWS V14.00,2013-03-02 14:35:00,
2013-03-02 08:37:00,33.7,10.2,30.50,NNW,347,0.0,0.0,37,0.00,,---,0.00,VWS V14.00,2013-03-02 14:37:00,
2013-03-02 08:39:00,34.0,10.5,30.50,NNW,347,0.0,0.0,37,0.00,,---,0.00,VWS V14.00,2013-03-02 14:39:00,
2013-03-02 08:40:00,34.3,10.8,30.50,NNW,347,0.0,0.0,37,0.00,,---,0.00,VWS V14.00,2013-03-02 14:40:00,
2013-03-02 08:43:00,35.5,10.6,30.50,NNW,347,0.0,0.0,35,0.00,,---,0.00,VWS V14.00,2013-03-02 14:43:00,
2013-03-02 08:44:00,35.8,10.2,30.47,NNW,347,0.0,0.0,34,0.00,,---,0.00,VWS V14.00,2013-03-02 14:44:00,
2013-03-02 08:45:00,35.9,10.3,30.47,NNW,347,0.0,0.0,34,0.00,,---,0.00,VWS V14.00,2013-03-02 14:45:00,
2013-03-02 08:46:00,36.0,10.4,30.47,NNW,347,0.0,0.0,34,0.00,,---,0.00,VWS V14.00,2013-03-02 14:46:00,
2013-03-02 08:47:00,36.3,10.6,30.47,NNW,347,0.0,0.0,34,0.00,,---,0.00,VWS V14.00,2013-03-02 14:47:00,
2013-03-02 08:49:00,36.9,10.5,30.47,NNW,347,0.0,0.0,33,0.00,,---,0.00,VWS V14.00,2013-03-02 14:49:00,
2013-03-02 08:50:00,37.0,10.6,30.47,NNW,347,0.0,0.0,33,0.00,,---,0.00,VWS V14.00,2013-03-02 14:50:00,
2013-03-02 08:51:00,37.2,10.1,30.47,NNW,347,0.0,0.0,32,0.00,,---,0.00,VWS V14.00,2013-03-02 14:51:00,
2013-03-02 08:53:00,37.6,9.0,30.47,NNW,347,0.0,0.0,30,0.00,,---,0.00,VWS V14.00,2013-03-02 14:53:00,
2013-03-02 08:55:00,38.5,9.8,30.47,NNW,347,0.0,0.0,30,0.00,,---,0.00,VWS V14.00,2013-03-02 14:55:00,
2013-03-02 08:56:00,38.8,10.0,30.47,NNW,347,0.0,0.0,30,0.00,,---,0.00,VWS V14.00,2013-03-02 14:56:00,
2013-03-02 08:58:00,39.1,10.3,30.47,NNW,347,0.0,0.0,30,0.00,,---,0.00,VWS V14.00,2013-03-02 14:58:00,
2013-03-02 09:00:00,39.5,9.9,30.45,NNW,347,0.0,0.0,29,0.00,,---,0.00,VWS V14.00,2013-03-02 15:00:00,
2013-03-02 09:01:00,39.8,9.4,30.45,NNW,347,0.0,0.0,28,0.00,,---,0.00,VWS V14.00,2013-03-02 15:01:00,
2013-03-02 09:03:00,39.8,9.4,30.45,NNW,347,0.0,0.0,28,0.00,,---,0.00,VWS V14.00,2013-03-02 15:03:00,
2013-03-02 09:05:00,40.2,9.7,30.45,NNW,347,0.0,0.0,28,0.00,,---,0.00,VWS V14.00,2013-03-02 15:05:00,
2013-03-02 09:06:00,40.3,9.8,30.45,NNW,347,0.0,0.0,28,0.00,,---,0.00,VWS V14.00,2013-03-02 15:06:00,
2013-03-02 09:08:00,40.9,9.5,30.45,NNW,347,0.0,0.0,27,0.00,,---,0.00,VWS V14.00,2013-03-02 15:08:00,
2013-03-02 09:10:00,41.3,10.7,30.45,NNW,347,0.0,0.0,28,0.00,,---,0.00,VWS V14.00,2013-03-02 15:10:00,
2013-03-02 09:11:00,41.5,10.0,30.45,NNW,347,0.0,0.0,27,0.00,,---,0.00,VWS V14.00,2013-03-02 15:11:00,
2013-03-02 09:13:00,41.8,10.3,30.45,NNW,346,0.0,0.0,27,0.00,,---,0.00,VWS V14.00,2013-03-02 15:13:00,
2013-03-02 09:15:00,42.2,9.8,30.43,NNW,346,0.0,0.0,26,0.00,,---,0.00,VWS V14.00,2013-03-02 15:15:00,
2013-03-02 09:16:00,42.6,10.1,30.43,NNW,347,0.0,0.0,26,0.00,,---,0.00,VWS V14.00,2013-03-02 15:16:00,
2013-03-02 09:18:00,43.3,10.7,30.43,NNW,346,0.0,0.0,26,0.00,,---,0.00,VWS V14.00,2013-03-02 15:18:00,
2013-03-02 09:20:00,44.3,11.6,30.43,NNW,347,0.0,0.0,26,0.00,,---,0.00,VWS V14.00,2013-03-02 15:20:00,
2013-03-02 09:21:00,44.6,10.1,30.43,NNW,347,0.0,0.0,24,0.00,,---,0.00,VWS V14.00,2013-03-02 15:21:00,
2013-03-02 09:22:00,44.8,10.2,30.43,NNW,347,0.0,0.0,24,0.00,,---,0.00,VWS V14.00,2013-03-02 15:22:00,
2013-03-02 09:24:00,45.1,10.5,30.43,NNW,347,0.0,0.0,24,0.00,,---,0.00,VWS V14.00,2013-03-02 15:24:00,
2013-03-02 09:25:00,45.7,11.9,30.43,NNW,347,0.0,0.0,25,0.00,,---,0.00,VWS V14.00,2013-03-02 15:25:00,
2013-03-02 09:26:00,46.0,11.2,30.43,NNW,347,0.0,0.0,24,0.00,,---,0.00,VWS V14.00,2013-03-02 15:26:00,
2013-03-02 09:27:00,46.0,11.2,30.43,NNW,347,0.0,0.0,24,0.00,,---,0.00,VWS V14.00,2013-03-02 15:27:00,
2013-03-02 09:29:00,46.1,10.4,30.41,NNW,347,0.0,0.0,23,0.00,,---,0.00,VWS V14.00,2013-03-02 15:29:00,
2013-03-02 09:30:00,46.2,10.5,30.41,NNW,347,0.0,0.0,23,0.00,,---,0.00,VWS V14.00,2013-03-02 15:30:00,
2013-03-02 09:31:00,46.7,10.9,30.41,NNW,347,0.0,0.0,23,0.00,,---,0.00,VWS V14.00,2013-03-02 15:31:00,
2013-03-02 09:32:00,46.8,11.0,30.41,NNW,347,0.0,0.0,23,0.00,,---,0.00,VWS V14.00,2013-03-02 15:32:00,
2013-03-02 09:34:00,47.3,11.4,30.41,NNW,346,0.0,0.0,23,0.00,,---,0.00,VWS V14.00,2013-03-02 15:34:00,
2013-03-02 09:35:00,47.7,10.7,30.41,NNW,346,0.0,0.0,22,0.00,,---,0.00,VWS V14.00,2013-03-02 15:35:00,
2013-03-02 09:36:00,47.9,10.9,30.41,NNW,346,0.0,0.0,22,0.00,,---,0.00,VWS V14.00,2013-03-02 15:36:00,
2013-03-02 09:37:00,48.0,11.0,30.41,NNW,346,0.0,0.0,22,0.00,,---,0.00,VWS V14.00,2013-03-02 15:37:00,
2013-03-02 09:39:00,48.5,11.4,30.41,NNW,346,0.0,0.0,22,0.00,,---,0.00,VWS V14.00,2013-03-02 15:39:00,
2013-03-02 09:40:00,49.4,12.2,30.41,NNW,346,0.0,0.0,22,0.00,,---,0.00,VWS V14.00,2013-03-02 15:40:00,
2013-03-02 09:41:00,49.6,10.2,30.41,NNW,347,0.0,0.0,20,0.00,,---,0.00,VWS V14.00,2013-03-02 15:41:00,
2013-03-02 09:42:00,49.8,10.4,30.41,NNW,347,0.0,0.0,20,0.00,,---,0.00,VWS V14.00,2013-03-02 15:42:00,
2013-03-02 09:44:00,50.7,12.2,30.38,NNW,347,0.0,0.0,21,0.00,,---,0.00,VWS V14.00,2013-03-02 15:44:00,
2013-03-02 09:45:00,51.1,11.4,30.38,NNW,347,0.0,0.0,20,0.00,,---,0.00,VWS V14.00,2013-03-02 15:45:00,
2013-03-02 09:47:00,51.6,11.9,30.38,NNW,347,0.0,0.0,20,0.00,,---,0.00,VWS V14.00,2013-03-02 15:47:00,
2013-03-02 09:49:00,52.5,11.4,30.38,NNW,347,0.0,0.0,19,0.00,,---,0.00,VWS V14.00,2013-03-02 15:49:00,
2013-03-02 09:51:00,53.2,12.0,30.38,NNW,347,0.0,0.0,19,0.00,,---,0.00,VWS V14.00,2013-03-02 15:51:00,
2013-03-02 09:52:00,53.3,12.1,30.38,NNW,347,0.0,0.0,19,0.00,,---,0.00,VWS V14.00,2013-03-02 15:52:00,
2013-03-02 09:54:00,53.6,9.9,30.38,North,349,0.0,0.0,17,0.00,,---,0.00,VWS V14.00,2013-03-02 15:54:00,
2013-03-02 09:56:00,53.9,10.1,30.38,North,349,0.0,0.0,17,0.00,,---,0.00,VWS V14.00,2013-03-02 15:56:00,
2013-03-02 09:57:00,54.1,10.3,30.38,North,349,0.0,0.0,17,0.00,,---,0.00,VWS V14.00,2013-03-02 15:57:00,
2013-03-02 09:58:00,54.1,8.9,30.38,North,349,0.0,0.0,16,0.00,,---,0.00,VWS V14.00,2013-03-02 15:58:00,
2013-03-02 10:00:00,54.7,10.8,30.36,North,349,0.0,0.0,17,0.00,,---,0.00,VWS V14.00,2013-03-02 16:00:00,
2013-03-02 10:01:00,55.1,11.1,30.36,North,349,0.0,0.0,17,0.00,,---,0.00,VWS V14.00,2013-03-02 16:01:00,
2013-03-02 10:02:00,55.4,10.0,30.36,North,349,0.0,0.0,16,0.00,,---,0.00,VWS V14.00,2013-03-02 16:02:00,
2013-03-02 10:03:00,55.6,10.1,30.36,North,349,0.0,0.0,16,0.00,,---,0.00,VWS V14.00,2013-03-02 16:03:00,
2013-03-02 10:05:00,56.0,10.5,30.36,North,349,0.0,0.0,16,0.00,,---,0.00,VWS V14.00,2013-03-02 16:05:00,
2013-03-02 10:06:00,56.3,10.7,30.36,North,349,0.0,0.0,16,0.00,,---,0.00,VWS V14.00,2013-03-02 16:06:00,
2013-03-02 10:08:00,56.3,9.3,30.36,NNW,347,0.0,3.0,15,0.00,,---,0.00,VWS V14.00,2013-03-02 16:08:00,
2013-03-02 10:10:00,56.7,9.6,30.36,NNW,344,0.0,3.0,15,0.00,,---,0.00,VWS V14.00,2013-03-02 16:10:00,
2013-03-02 10:12:00,57.2,11.4,30.36,NNW,344,0.0,3.0,16,0.00,,---,0.00,VWS V14.00,2013-03-02 16:12:00,
2013-03-02 10:13:00,57.2,11.4,30.36,NNW,340,5.0,5.0,16,0.00,,---,0.00,VWS V14.00,2013-03-02 16:13:00,
2013-03-02 10:15:00,57.0,9.8,30.34,North,349,0.0,5.0,15,0.00,,---,0.00,VWS V14.00,2013-03-02 16:15:00,
2013-03-02 10:17:00,57.0,9.8,30.34,North,349,0.0,5.0,15,0.00,,---,0.00,VWS V14.00,2013-03-02 16:17:00,
2013-03-02 10:18:00,57.2,11.4,30.34,North,349,0.0,5.0,16,0.00,,---,0.00,VWS V14.00,2013-03-02 16:18:00,
2013-03-02 10:20:00,57.8,10.5,30.34,North,350,0.0,5.0,15,0.00,,---,0.00,VWS V14.00,2013-03-02 16:20:00,
2013-03-02 10:22:00,58.0,10.6,30.34,North,350,0.0,5.0,15,0.00,,---,0.00,VWS V14.00,2013-03-02 16:22:00,
2013-03-02 10:23:00,58.1,10.7,30.34,North,350,0.0,5.0,15,0.00,,---,0.00,VWS V14.00,2013-03-02 16:23:00,
2013-03-02 10:25:00,58.4,10.9,30.34,North,350,0.0,5.0,15,0.00,,---,0.00,VWS V14.00,2013-03-02 16:25:00,
2013-03-02 10:27:00,58.6,11.1,30.34,NNW,336,0.0,7.0,15,0.00,,---,0.00,VWS V14.00,2013-03-02 16:27:00,
2013-03-02 10:28:00,58.6,11.1,30.34,NNW,336,0.0,7.0,15,0.00,,---,0.00,VWS V14.00,2013-03-02 16:28:00,
2013-03-02 10:30:00,58.7,11.2,30.32,NNW,336,0.0,0.0,15,0.00,,---,0.00,VWS V14.00,2013-03-02 16:30:00,
2013-03-02 10:32:00,58.9,11.4,30.32,NNW,344,5.0,5.0,15,0.00,,---,0.00,VWS V14.00,2013-03-02 16:32:00,
2013-03-02 10:33:00,58.9,11.4,30.32,NNW,346,1.0,5.0,15,0.00,,---,0.00,VWS V14.00,2013-03-02 16:33:00,
2013-03-02 10:35:00,59.2,11.6,30.32,NNW,346,0.0,5.0,15,0.00,,---,0.00,VWS V14.00,2013-03-02 16:35:00,
2013-03-02 10:37:00,59.2,11.6,30.32,WNW,285,0.0,8.0,15,0.00,,---,0.00,VWS V14.00,2013-03-02 16:37:00,
2013-03-02 10:38:00,59.2,13.1,30.32,WNW,285,0.0,8.0,16,0.00,,---,0.00,VWS V14.00,2013-03-02 16:38:00,
2013-03-02 10:40:00,59.6,11.9,30.32,WNW,287,0.0,8.0,15,0.00,,---,0.00,VWS V14.00,2013-03-02 16:40:00,
2013-03-02 10:42:00,60.1,12.3,30.32,NNW,336,3.0,8.0,15,0.00,,---,0.00,VWS V14.00,2013-03-02 16:42:00,
2013-03-02 10:43:00,59.9,12.2,30.32,NNE,16,8.0,11.0,15,0.00,,---,0.00,VWS V14.00,2013-03-02 16:43:00,
2013-03-02 10:44:00,59.8,10.5,30.32,NNE,13,1.0,11.0,14,0.00,,---,0.00,VWS V14.00,2013-03-02 16:44:00,
2013-03-02 10:45:00,59.8,12.1,30.32,NNE,16,3.0,11.0,15,0.00,,---,0.00,VWS V14.00,2013-03-02 16:45:00,
2013-03-02 10:47:00,59.8,12.1,30.32,NNE,20,0.0,11.0,15,0.00,,---,0.00,VWS V14.00,2013-03-02 16:47:00,
2013-03-02 10:48:00,59.9,12.2,30.32,North,352,0.0,11.0,15,0.00,,---,0.00,VWS V14.00,2013-03-02 16:48:00,
2013-03-02 10:49:00,59.9,12.2,30.32,North,0,12.0,12.0,15,0.00,,---,0.00,VWS V14.00,2013-03-02 16:49:00,
2013-03-02 10:50:00,60.2,12.4,30.32,NW,323,1.0,12.0,15,0.00,,---,0.00,VWS V14.00,2013-03-02 16:50:00,
2013-03-02 10:52:00,60.2,12.4,30.32,North,354,1.0,12.0,15,0.00,,---,0.00,VWS V14.00,2013-03-02 16:52:00,
2013-03-02 10:53:00,60.1,12.3,30.32,North,359,2.0,12.0,15,0.00,,---,0.00,VWS V14.00,2013-03-02 16:53:00,
2013-03-02 10:54:00,60.1,12.3,30.32,North,359,1.0,12.0,15,0.00,,---,0.00,VWS V14.00,2013-03-02 16:54:00,
2013-03-02 10:55:00,60.1,12.3,30.32,North,6,0.0,12.0,15,0.00,,---,0.00,VWS V14.00,2013-03-02 16:55:00,
2013-03-02 10:57:00,60.1,12.3,30.32,NNW,346,0.0,12.0,15,0.00,,---,0.00,VWS V14.00,2013-03-02 16:57:00,
2013-03-02 10:58:00,59.8,12.1,30.32,North,349,0.0,12.0,15,0.00,,---,0.00,VWS V14.00,2013-03-02 16:58:00,
2013-03-02 10:59:00,59.9,12.2,30.32,NNE,14,0.0,12.0,15,0.00,,---,0.00,VWS V14.00,2013-03-02 16:59:00,
2013-03-02 11:00:00,60.1,13.8,30.32,North,359,0.0,7.0,16,0.00,,---,0.00,VWS V14.00,2013-03-02 17:00:00,
2013-03-02 11:03:00,60.1,10.8,30.32,North,359,0.0,7.0,14,0.00,,---,0.00,VWS V14.00,2013-03-02 17:03:00,
2013-03-02 11:04:00,59.9,10.6,30.32,NNW,347,14.0,14.0,14,0.00,,---,0.00,VWS V14.00,2013-03-02 17:04:00,
2013-03-02 11:06:00,60.1,10.8,30.32,North,352,0.0,14.0,14,0.00,,---,0.00,VWS V14.00,2013-03-02 17:06:00,
2013-03-02 11:08:00,60.2,12.4,30.32,North,352,0.0,14.0,15,0.00,,---,0.00,VWS V14.00,2013-03-02 17:08:00,
2013-03-02 11:10:00,60.4,12.6,30.32,North,359,0.0,14.0,15,0.00,,---,0.00,VWS V14.00,2013-03-02 17:10:00,
2013-03-02 11:11:00,60.2,12.4,30.32,North,359,6.0,14.0,15,0.00,,---,0.00,VWS V14.00,2013-03-02 17:11:00,
2013-03-02 11:13:00,60.7,12.8,30.32,North,354,6.0,14.0,15,0.00,,---,0.00,VWS V14.00,2013-03-02 17:13:00,
2013-03-02 11:15:00,60.7,11.2,30.33,NNE,25,0.0,14.0,14,0.00,,---,0.00,VWS V14.00,2013-03-02 17:15:00,
2013-03-02 11:16:00,60.7,11.2,30.33,North,4,5.0,14.0,14,0.00,,---,0.00,VWS V14.00,2013-03-02 17:16:00,
2013-03-02 11:18:00,60.9,11.4,30.33,North,3,0.0,14.0,14,0.00,,---,0.00,VWS V14.00,2013-03-02 17:18:00,
2013-03-02 11:20:00,61.0,11.5,30.33,North,7,0.0,14.0,14,0.00,,---,0.00,VWS V14.00,2013-03-02 17:20:00,
2013-03-02 11:21:00,61.0,11.5,30.33,NE,55,0.0,14.0,14,0.00,,---,0.00,VWS V14.00,2013-03-02 17:21:00,
2013-03-02 11:23:00,61.0,11.5,30.33,ENE,59,3.0,14.0,14,0.00,,---,0.00,VWS V14.00,2013-03-02 17:23:00,
2013-03-02 11:25:00,60.1,9.1,30.33,ENE,75,1.0,14.0,13,0.00,,---,0.00,VWS V14.00,2013-03-02 17:25:00,
2013-03-02 11:26:00,59.8,10.5,30.33,ENE,75,0.0,14.0,14,0.00,,---,0.00,VWS V14.00,2013-03-02 17:26:00,
2013-03-02 11:28:00,60.2,10.9,30.33,ENE,75,0.0,14.0,14,0.00,,---,0.00,VWS V14.00,2013-03-02 17:28:00,
2013-03-02 11:30:00,59.6,11.9,30.33,East,79,3.0,3.0,15,0.00,,---,0.00,VWS V14.00,2013-03-02 17:30:00,
2013-03-02 11:31:00,59.8,10.5,30.33,East,79,0.0,3.0,14,0.00,,---,0.00,VWS V14.00,2013-03-02 17:31:00,
2013-03-02 11:33:00,60.1,10.8,30.33,East,79,0.0,3.0,14,0.00,,---,0.00,VWS V14.00,2013-03-02 17:33:00,
2013-03-02 11:34:00,60.2,10.9,30.33,East,79,0.0,3.0,14,0.00,,---,0.00,VWS V14.00,2013-03-02 17:34:00,
2013-03-02 11:35:00,60.4,11.0,30.33,East,79,0.0,3.0,14,0.00,,---,0.00,VWS V14.00,2013-03-02 17:35:00,
2013-03-02 11:36:00,60.5,11.1,30.33,East,79,1.0,3.0,14,0.00,,---,0.00,VWS V14.00,2013-03-02 17:36:00,
2013-03-02 11:38:00,60.9,9.8,30.33,ENE,76,1.0,7.0,13,0.00,,---,0.00,VWS V14.00,2013-03-02 17:38:00,
2013-03-02 11:39:00,61.0,9.8,30.33,ENE,76,0.0,7.0,13,0.00,,---,0.00,VWS V14.00,2013-03-02 17:39:00,
2013-03-02 11:40:00,61.0,9.8,30.33,ENE,78,1.0,7.0,13,0.00,,---,0.00,VWS V14.00,2013-03-02 17:40:00,
2013-03-02 11:41:00,61.0,11.5,30.33,East,79,0.0,7.0,14,0.00,,---,0.00,VWS V14.00,2013-03-02 17:41:00,
2013-03-02 11:43:00,61.2,11.6,30.33,East,79,0.0,7.0,14,0.00,,---,0.00,VWS V14.00,2013-03-02 17:43:00,
2013-03-02 11:44:00,61.0,11.5,30.33,East,82,2.0,7.0,14,0.00,,---,0.00,VWS V14.00,2013-03-02 17:44:00,
2013-03-02 11:46:00,61.2,11.6,30.33,East,88,7.0,7.0,14,0.00,,---,0.00,VWS V14.00,2013-03-02 17:46:00,
2013-03-02 11:47:00,60.9,9.8,30.33,East,89,5.0,7.0,13,0.00,,---,0.00,VWS V14.00,2013-03-02 17:47:00,
2013-03-02 11:49:00,60.7,11.2,30.33,East,88,4.0,7.0,14,0.00,,---,0.00,VWS V14.00,2013-03-02 17:49:00,
2013-03-02 11:51:00,60.2,10.9,30.33,East,92,0.0,10.0,14,0.00,,---,0.00,VWS V14.00,2013-03-02 17:51:00,
2013-03-02 11:52:00,60.2,10.9,30.33,East,93,6.0,10.0,14,0.00,,---,0.00,VWS V14.00,2013-03-02 17:52:00,
2013-03-02 11:54:00,60.4,11.0,30.33,East,95,0.0,10.0,14,0.00,,---,0.00,VWS V14.00,2013-03-02 17:54:00,
2013-03-02 11:56:00,60.5,11.1,30.33,East,95,0.0,10.0,14,0.00,,---,0.00,VWS V14.00,2013-03-02 17:56:00,
2013-03-02 11:57:00,60.7,11.2,30.33,East,95,6.0,10.0,14,0.00,,---,0.00,VWS V14.00,2013-03-02 17:57:00,
2013-03-02 11:59:00,61.2,11.6,30.33,East,95,0.0,10.0,14,0.00,,---,0.00,VWS V14.00,2013-03-02 17:59:00,
2013-03-02 12:01:00,61.3,10.1,30.33,East,96,5.0,11.0,13,0.00,,---,0.00,VWS V14.00,2013-03-02 18:01:00,
2013-03-02 12:02:00,60.9,9.8,30.33,East,96,6.0,11.0,13,0.00,,---,0.00,VWS V14.00,2013-03-02 18:02:00,
2013-03-02 12:04:00,60.5,11.1,30.33,East,96,2.0,11.0,14,0.00,,---,0.00,VWS V14.00,2013-03-02 18:04:00,
2013-03-02 12:06:00,60.9,11.4,30.33,East,97,8.0,11.0,14,0.00,,---,0.00,VWS V14.00,2013-03-02 18:06:00,
2013-03-02 12:07:00,60.9,9.8,30.33,East,96,0.0,11.0,13,0.00,,---,0.00,VWS V14.00,2013-03-02 18:07:00,
2013-03-02 12:09:00,60.7,9.6,30.33,East,96,5.0,11.0,13,0.00,,---,0.00,VWS V14.00,2013-03-02 18:09:00,
2013-03-02 12:11:00,60.4,11.0,30.33,East,96,2.0,11.0,14,0.00,,---,0.00,VWS V14.00,2013-03-02 18:11:00,
2013-03-02 12:12:00,60.4,11.0,30.33,East,96,0.0,11.0,14,0.00,,---,0.00,VWS V14.00,2013-03-02 18:12:00,
2013-03-02 12:14:00,60.7,11.2,30.33,East,89,0.0,11.0,14,0.00,,---,0.00,VWS V14.00,2013-03-02 18:14:00,
2013-03-02 12:15:00,61.2,11.6,30.33,East,90,6.0,11.0,14,0.00,,---,0.00,VWS V14.00,2013-03-02 18:15:00,
2013-03-02 12:16:00,60.9,9.8,30.33,East,90,0.0,11.0,13,0.00,,---,0.00,VWS V14.00,2013-03-02 18:16:00,
2013-03-02 12:17:00,60.9,9.8,30.33,East,90,0.0,11.0,13,0.00,,---,0.00,VWS V14.00,2013-03-02 18:17:00,
2013-03-02 12:19:00,60.7,11.2,30.33,East,90,0.0,11.0,14,0.00,,---,0.00,VWS V14.00,2013-03-02 18:19:00,
2013-03-02 12:20:00,60.9,11.4,30.33,East,89,0.0,11.0,14,0.00,,---,0.00,VWS V14.00,2013-03-02 18:20:00,
2013-03-02 12:21:00,60.9,11.4,30.33,East,88,0.0,11.0,14,0.00,,---,0.00,VWS V14.00,2013-03-02 18:21:00,
2013-03-02 12:22:00,61.2,10.0,30.33,East,79,0.0,11.0,13,0.00,,---,0.00,VWS V14.00,2013-03-02 18:22:00,
2013-03-02 12:24:00,61.3,10.1,30.33,ENE,78,0.0,11.0,13,0.00,,---,0.00,VWS V14.00,2013-03-02 18:24:00,
2013-03-02 12:25:00,61.6,10.3,30.33,ENE,78,0.0,11.0,13,0.00,,---,0.00,VWS V14.00,2013-03-02 18:25:00,
2013-03-02 12:26:00,62.1,10.7,30.33,ENE,78,5.0,11.0,13,0.00,,---,0.00,VWS V14.00,2013-03-02 18:26:00,
2013-03-02 12:27:00,61.8,10.5,30.33,East,79,0.0,11.0,13,0.00,,---,0.00,VWS V14.00,2013-03-02 18:27:00,
2013-03-02 12:29:00,61.6,12.0,30.33,East,80,0.0,11.0,14,0.00,,---,0.00,VWS V14.00,2013-03-02 18:29:00,
2013-03-02 12:30:00,61.6,10.3,30.33,East,80,0.0,0.0,13,0.00,,---,0.00,VWS V14.00,2013-03-02 18:30:00,
2013-03-02 12:32:00,61.8,10.5,30.33,East,79,2.0,5.0,13,0.00,,---,0.00,VWS V14.00,2013-03-02 18:32:00,
2013-03-02 12:34:00,61.6,10.3,30.33,East,79,0.0,5.0,13,0.00,,---,0.00,VWS V14.00,2013-03-02 18:34:00,
2013-03-02 12:35:00,62.0,10.6,30.33,East,79,0.0,5.0,13,0.00,,---,0.00,VWS V14.00,2013-03-02 18:35:00,
2013-03-02 12:37:00,61.8,10.5,30.33,East,79,6.0,6.0,13,0.00,,---,0.00,VWS V14.00,2013-03-02 18:37:00,
2013-03-02 12:38:00,61.3,10.1,30.33,East,80,5.0,7.0,13,0.00,,---,0.00,VWS V14.00,2013-03-02 18:38:00,
2013-03-02 12:39:00,61.5,10.2,30.33,East,82,0.0,7.0,13,0.00,,---,0.00,VWS V14.00,2013-03-02 18:39:00,
2013-03-02 12:40:00,61.8,10.5,30.33,East,80,0.0,7.0,13,0.00,,---,0.00,VWS V14.00,2013-03-02 18:40:00,
2013-03-02 12:42:00,61.8,10.5,30.33,East,80,0.0,7.0,13,0.00,,---,0.00,VWS V14.00,2013-03-02 18:42:00,
2013-03-02 12:43:00,62.0,10.6,30.33,East,80,0.0,7.0,13,0.00,,---,0.00,VWS V14.00,2013-03-02 18:43:00,
2013-03-02 12:44:00,62.1,10.7,30.32,East,89,6.0,10.0,13,0.00,,---,0.00,VWS V14.00,2013-03-02 18:44:00,
2013-03-02 12:45:00,62.1,10.7,30.32,East,89,0.0,10.0,13,0.00,,---,0.00,VWS V14.00,2013-03-02 18:45:00,
2013-03-02 12:47:00,62.3,10.9,30.32,East,89,1.0,10.0,13,0.00,,---,0.00,VWS V14.00,2013-03-02 18:47:00,
2013-03-02 12:48:00,62.4,10.9,30.32,East,89,6.0,10.0,13,0.00,,---,0.00,VWS V14.00,2013-03-02 18:48:00,
2013-03-02 12:49:00,62.3,10.9,30.32,East,89,0.0,10.0,13,0.00,,---,0.00,VWS V14.00,2013-03-02 18:49:00,
2013-03-02 12:50:00,62.3,10.9,30.32,East,89,0.0,10.0,13,0.00,,---,0.00,VWS V14.00,2013-03-02 18:50:00,
2013-03-02 12:52:00,62.1,10.7,30.32,East,89,0.0,10.0,13,0.00,,---,0.00,VWS V14.00,2013-03-02 18:52:00,
2013-03-02 12:53:00,62.0,10.6,30.32,East,89,0.0,10.0,13,0.00,,---,0.00,VWS V14.00,2013-03-02 18:53:00,
2013-03-02 12:54:00,62.1,10.7,30.32,East,89,0.0,10.0,13,0.00,,---,0.00,VWS V14.00,2013-03-02 18:54:00,
2013-03-02 12:56:00,62.4,10.9,30.32,East,89,0.0,10.0,13,0.00,,---,0.00,VWS V14.00,2013-03-02 18:56:00,
2013-03-02 12:57:00,62.6,11.1,30.32,East,89,5.0,10.0,13,0.00,,---,0.00,VWS V14.00,2013-03-02 18:57:00,
2013-03-02 12:58:00,62.4,10.9,30.32,East,89,0.0,10.0,13,0.00,,---,0.00,VWS V14.00,2013-03-02 18:58:00,
2013-03-02 12:59:00,62.1,10.7,30.32,East,89,0.0,10.0,13,0.00,,---,0.00,VWS V14.00,2013-03-02 18:59:00,
2013-03-02 13:01:00,62.1,10.7,30.32,East,89,0.0,7.0,13,0.00,,---,0.00,VWS V14.00,2013-03-02 19:01:00,
2013-03-02 13:02:00,62.1,10.7,30.32,East,89,0.0,7.0,13,0.00,,---,0.00,VWS V14.00,2013-03-02 19:02:00,
2013-03-02 13:03:00,62.0,10.6,30.32,East,89,0.0,7.0,13,0.00,,---,0.00,VWS V14.00,2013-03-02 19:03:00,
2013-03-02 13:04:00,61.8,12.1,30.32,East,89,0.0,7.0,14,0.00,,---,0.00,VWS V14.00,2013-03-02 19:04:00,
2013-03-02 13:06:00,61.8,12.1,30.32,East,89,0.0,7.0,14,0.00,,---,0.00,VWS V14.00,2013-03-02 19:06:00,
2013-03-02 13:08:00,62.4,10.9,30.32,East,89,3.0,7.0,13,0.00,,---,0.00,VWS V14.00,2013-03-02 19:08:00,
2013-03-02 13:09:00,62.3,10.9,30.32,East,89,0.0,7.0,13,0.00,,---,0.00,VWS V14.00,2013-03-02 19:09:00,
2013-03-02 13:11:00,62.3,10.9,30.32,East,89,0.0,7.0,13,0.00,,---,0.00,VWS V14.00,2013-03-02 19:11:00,
2013-03-02 13:13:00,62.7,11.2,30.32,East,89,6.0,7.0,13,0.00,,---,0.00,VWS V14.00,2013-03-02 19:13:00,
2013-03-02 13:14:00,62.9,11.3,30.31,East,93,3.0,10.0,13,0.00,,---,0.00,VWS V14.00,2013-03-02 19:14:00,
2013-03-02 13:16:00,62.9,9.5,30.31,East,93,5.0,10.0,12,0.00,,---,0.00,VWS V14.00,2013-03-02 19:16:00,
2013-03-02 13:18:00,63.4,13.4,30.31,East,93,2.0,10.0,14,0.00,,---,0.00,VWS V14.00,2013-03-02 19:18:00,
2013-03-02 13:20:00,63.2,9.8,30.31,East,97,0.0,10.0,12,0.00,,---,0.00,VWS V14.00,2013-03-02 19:20:00,
2013-03-02 13:21:00,63.1,11.5,30.31,East,97,0.0,10.0,13,0.00,,---,0.00,VWS V14.00,2013-03-02 19:21:00,
2013-03-02 13:23:00,62.9,11.3,30.31,East,97,0.0,10.0,13,0.00,,---,0.00,VWS V14.00,2013-03-02 19:23:00,
2013-03-02 13:25:00,62.9,11.3,30.31,East,97,0.0,10.0,13,0.00,,---,0.00,VWS V14.00,2013-03-02 19:25:00,
2013-03-02 13:26:00,62.9,11.3,30.31,East,97,0.0,10.0,13,0.00,,---,0.00,VWS V14.00,2013-03-02 19:26:00,
2013-03-02 13:28:00,63.2,11.6,30.31,East,97,0.0,10.0,13,0.00,,---,0.00,VWS V14.00,2013-03-02 19:28:00,
2013-03-02 13:30:00,63.5,11.8,30.27,East,99,6.0,10.0,13,0.00,,---,0.00,VWS V14.00,2013-03-02 19:30:00,
2013-03-02 13:31:00,63.7,12.0,30.27,East,99,6.0,10.0,13,0.00,,---,0.00,VWS V14.00,2013-03-02 19:31:00,
2013-03-02 13:33:00,63.7,13.6,30.27,ESE,107,6.0,11.0,14,0.00,,---,0.00,VWS V14.00,2013-03-02 19:33:00,
2013-03-02 13:34:00,63.7,13.6,30.27,ESE,107,4.0,11.0,14,0.00,,---,0.00,VWS V14.00,2013-03-02 19:34:00,
2013-03-02 13:35:00,63.9,12.1,30.27,ESE,107,0.0,11.0,13,0.00,,---,0.00,VWS V14.00,2013-03-02 19:35:00,
2013-03-02 13:36:00,63.7,12.0,30.27,ESE,107,5.0,11.0,13,0.00,,---,0.00,VWS V14.00,2013-03-02 19:36:00,
2013-03-02 13:38:00,63.7,12.0,30.27,ESE,107,0.0,11.0,13,0.00,,---,0.00,VWS V14.00,2013-03-02 19:38:00,
2013-03-02 13:39:00,63.5,11.8,30.27,ESE,107,0.0,11.0,13,0.00,,---,0.00,VWS V14.00,2013-03-02 19:39:00,
2013-03-02 13:40:00,63.7,12.0,30.27,ESE,107,0.0,11.0,13,0.00,,---,0.00,VWS V14.00,2013-03-02 19:40:00,
2013-03-02 13:41:00,63.9,12.1,30.27,ESE,107,0.0,11.0,13,0.00,,---,0.00,VWS V14.00,2013-03-02 19:41:00,
2013-03-02 13:43:00,64.3,12.4,30.27,ESE,107,3.0,11.0,13,0.00,,---,0.00,VWS V14.00,2013-03-02 19:43:00,
2013-03-02 13:44:00,64.3,12.4,30.29,ESE,107,3.0,11.0,13,0.00,,---,0.00,VWS V14.00,2013-03-02 19:44:00,
2013-03-02 13:46:00,63.9,12.1,30.29,ESE,107,7.0,11.0,13,0.00,,---,0.00,VWS V14.00,2013-03-02 19:46:00,
2013-03-02 13:49:00,64.2,12.4,30.29,ESE,107,0.0,11.0,13,0.00,,---,0.00,VWS V14.00,2013-03-02 19:49:00,
2013-03-02 13:51:00,64.2,12.4,30.29,ESE,107,3.0,11.0,13,0.00,,---,0.00,VWS V14.00,2013-03-02 19:51:00,
2013-03-02 13:54:00,64.3,12.4,30.29,ESE,107,0.0,11.0,13,0.00,,---,0.00,VWS V14.00,2013-03-02 19:54:00,
2013-03-02 13:56:00,64.7,12.8,30.29,ESE,107,5.0,11.0,13,0.00,,---,0.00,VWS V14.00,2013-03-02 19:56:00,
2013-03-02 13:59:00,64.5,12.6,30.27,ESE,107,0.0,11.0,13,0.00,,---,0.00,VWS V14.00,2013-03-02 19:59:00,
2013-03-02 14:01:00,64.3,10.6,30.27,ESE,107,0.0,4.0,12,0.00,,---,0.00,VWS V14.00,2013-03-02 20:01:00,
2013-03-02 14:02:00,64.5,10.8,30.27,ESE,107,0.0,4.0,12,0.00,,---,0.00,VWS V14.00,2013-03-02 20:02:00,
2013-03-02 14:04:00,64.8,11.0,30.27,ESE,106,0.0,4.0,12,0.00,,---,0.00,VWS V14.00,2013-03-02 20:04:00,
2013-03-02 14:06:00,65.3,11.4,30.27,ESE,106,1.0,4.0,12,0.00,,---,0.00,VWS V14.00,2013-03-02 20:06:00,
2013-03-02 14:07:00,65.3,11.4,30.27,ESE,106,0.0,4.0,12,0.00,,---,0.00,VWS V14.00,2013-03-02 20:07:00,
2013-03-02 14:09:00,66.0,12.0,30.27,ESE,106,5.0,5.0,12,0.00,,---,0.00,VWS V14.00,2013-03-02 20:09:00,
2013-03-02 14:11:00,66.1,12.0,30.27,ESE,106,0.0,5.0,12,0.00,,---,0.00,VWS V14.00,2013-03-02 20:11:00,
2013-03-02 14:12:00,66.1,12.0,30.27,ESE,106,0.0,5.0,12,0.00,,---,0.00,VWS V14.00,2013-03-02 20:12:00,
2013-03-02 14:14:00,66.1,12.0,30.25,ESE,106,2.0,5.0,12,0.00,,---,0.00,VWS V14.00,2013-03-02 20:14:00,
2013-03-02 14:15:00,65.8,11.8,30.25,ESE,106,0.0,5.0,12,0.00,,---,0.00,VWS V14.00,2013-03-02 20:15:00,
2013-03-02 14:16:00,66.0,12.0,30.25,ESE,106,0.0,5.0,12,0.00,,---,0.00,VWS V14.00,2013-03-02 20:16:00,
2013-03-02 14:17:00,66.1,12.0,30.25,ESE,106,0.0,5.0,12,0.00,,---,0.00,VWS V14.00,2013-03-02 20:17:00,
2013-03-02 14:19:00,66.1,10.1,30.25,ESE,106,0.0,5.0,11,0.00,,---,0.00,VWS V14.00,2013-03-02 20:19:00,
2013-03-02 14:20:00,66.3,12.2,30.25,ESE,106,0.0,5.0,12,0.00,,---,0.00,VWS V14.00,2013-03-02 20:20:00,
2013-03-02 14:21:00,66.4,12.3,30.25,ESE,106,0.0,5.0,12,0.00,,---,0.00,VWS V14.00,2013-03-02 20:21:00,
2013-03-02 14:22:00,66.4,12.3,30.25,ESE,106,0.0,5.0,12,0.00,,---,0.00,VWS V14.00,2013-03-02 20:22:00,
2013-03-02 14:24:00,66.4,12.3,30.25,ESE,104,2.0,5.0,12,0.00,,---,0.00,VWS V14.00,2013-03-02 20:24:00,
2013-03-02 14:25:00,66.4,12.3,30.25,ESE,103,6.0,6.0,12,0.00,,---,0.00,VWS V14.00,2013-03-02 20:25:00,
2013-03-02 14:27:00,66.0,12.0,30.25,East,92,0.0,6.0,12,0.00,,---,0.00,VWS V14.00,2013-03-02 20:27:00,
2013-03-02 14:29:00,66.0,12.0,30.25,East,90,0.0,6.0,12,0.00,,---,0.00,VWS V14.00,2013-03-02 20:29:00,
2013-03-02 14:30:00,66.1,12.0,30.25,East,90,0.0,0.0,12,0.00,,---,0.00,VWS V14.00,2013-03-02 20:30:00,
2013-03-02 14:32:00,65.8,11.8,30.25,East,89,3.0,6.0,12,0.00,,---,0.00,VWS V14.00,2013-03-02 20:32:00,
2013-03-02 14:34:00,65.0,11.2,30.25,East,88,0.0,6.0,12,0.00,,---,0.00,VWS V14.00,2013-03-02 20:34:00,
2013-03-02 14:35:00,64.8,12.8,30.25,East,86,6.0,6.0,13,0.00,,---,0.00,VWS V14.00,2013-03-02 20:35:00,
2013-03-02 14:37:00,64.8,11.0,30.25,East,82,3.0,6.0,12,0.00,,---,0.00,VWS V14.00,2013-03-02 20:37:00,
2013-03-02 14:40:00,65.3,11.4,30.25,East,82,0.0,6.0,12,0.00,,---,0.00,VWS V14.00,2013-03-02 20:40:00,
2013-03-02 14:43:00,65.2,11.3,30.25,ENE,72,0.0,7.0,12,0.00,,---,0.00,VWS V14.00,2013-03-02 20:43:00,
2013-03-02 14:45:00,65.5,11.6,30.25,ENE,72,0.0,7.0,12,0.00,,---,0.00,VWS V14.00,2013-03-02 20:45:00,
2013-03-02 14:48:00,65.3,11.4,30.25,ENE,61,0.0,10.0,12,0.00,,---,0.00,VWS V14.00,2013-03-02 20:48:00,
2013-03-02 14:50:00,65.2,11.3,30.25,ENE,61,0.0,10.0,12,0.00,,---,0.00,VWS V14.00,2013-03-02 20:50:00,
2013-03-02 14:53:00,65.6,11.6,30.25,ENE,61,0.0,10.0,12,0.00,,---,0.00,VWS V14.00,2013-03-02 20:53:00,
2013-03-02 14:55:00,65.5,11.6,30.25,ENE,66,5.0,11.0,12,0.00,,---,0.00,VWS V14.00,2013-03-02 20:55:00,
2013-03-02 14:58:00,64.8,11.0,30.25,ENE,66,0.0,11.0,12,0.00,,---,0.00,VWS V14.00,2013-03-02 20:58:00,
2013-03-02 15:00:00,65.0,11.2,30.25,ENE,66,0.0,0.0,12,0.00,,---,0.00,VWS V14.00,2013-03-02 21:00:00,
2013-03-02 15:03:00,65.2,11.3,30.25,ENE,66,0.0,6.0,12,0.00,,---,0.00,VWS V14.00,2013-03-02 21:03:00,
2013-03-02 15:05:00,65.3,11.4,30.25,ENE,66,0.0,6.0,12,0.00,,---,0.00,VWS V14.00,2013-03-02 21:05:00,
2013-03-02 15:08:00,65.3,11.4,30.25,East,86,1.0,16.0,12,0.00,,---,0.00,VWS V14.00,2013-03-02 21:08:00,
2013-03-02 15:10:00,65.3,11.4,30.25,East,86,2.0,16.0,12,0.00,,---,0.00,VWS V14.00,2013-03-02 21:10:00,
2013-03-02 15:13:00,65.0,11.2,30.25,East,86,0.0,16.0,12,0.00,,---,0.00,VWS V14.00,2013-03-02 21:13:00,
2013-03-02 15:14:00,65.0,11.2,30.25,East,86,0.0,16.0,12,0.00,,---,0.00,VWS V14.00,2013-03-02 21:14:00,
2013-03-02 15:15:00,65.3,11.4,30.24,East,86,0.0,16.0,12,0.00,,---,0.00,VWS V14.00,2013-03-02 21:15:00,
2013-03-02 15:18:00,65.3,11.4,30.24,East,88,7.0,16.0,12,0.00,,---,0.00,VWS V14.00,2013-03-02 21:18:00,
2013-03-02 15:19:00,65.3,11.4,30.24,East,88,1.0,16.0,12,0.00,,---,0.00,VWS V14.00,2013-03-02 21:19:00,
2013-03-02 15:20:00,65.2,11.3,30.24,East,88,2.0,16.0,12,0.00,,---,0.00,VWS V14.00,2013-03-02 21:20:00,
2013-03-02 15:23:00,65.3,11.4,30.24,East,88,0.0,16.0,12,0.00,,---,0.00,VWS V14.00,2013-03-02 21:23:00,
2013-03-02 15:24:00,65.5,11.6,30.24,East,88,2.0,16.0,12,0.00,,---,0.00,VWS V14.00,2013-03-02 21:24:00,
2013-03-02 15:25:00,66.0,12.0,30.24,East,88,0.0,16.0,12,0.00,,---,0.00,VWS V14.00,2013-03-02 21:25:00,
2013-03-02 15:26:00,66.0,12.0,30.24,East,88,1.0,16.0,12,0.00,,---,0.00,VWS V14.00,2013-03-02 21:26:00,
2013-03-02 15:28:00,66.1,12.0,30.24,East,88,2.0,16.0,12,0.00,,---,0.00,VWS V14.00,2013-03-02 21:28:00,
2013-03-02 15:29:00,66.3,12.2,30.23,East,88,6.0,16.0,12,0.00,,---,0.00,VWS V14.00,2013-03-02 21:29:00,
2013-03-02 15:30:00,66.1,12.0,30.23,East,88,2.0,3.0,12,0.00,,---,0.00,VWS V14.00,2013-03-02 21:30:00,
2013-03-02 15:31:00,66.1,12.0,30.23,East,88,0.0,3.0,12,0.00,,---,0.00,VWS V14.00,2013-03-02 21:31:00,
2013-03-02 15:33:00,66.0,10.0,30.23,East,88,3.0,8.0,11,0.00,,---,0.00,VWS V14.00,2013-03-02 21:33:00,
2013-03-02 15:34:00,66.0,12.0,30.23,East,88,0.0,8.0,12,0.00,,---,0.00,VWS V14.00,2013-03-02 21:34:00,
2013-03-02 15:35:00,65.8,11.8,30.23,East,88,0.0,8.0,12,0.00,,---,0.00,VWS V14.00,2013-03-02 21:35:00,
2013-03-02 15:36:00,65.6,11.6,30.23,East,88,0.0,8.0,12,0.00,,---,0.00,VWS V14.00,2013-03-02 21:36:00,
2013-03-02 15:39:00,65.6,11.6,30.23,East,88,0.0,8.0,12,0.00,,---,0.00,VWS V14.00,2013-03-02 21:39:00,
2013-03-02 15:40:00,65.6,11.6,30.23,East,88,0.0,8.0,12,0.00,,---,0.00,VWS V14.00,2013-03-02 21:40:00,
2013-03-02 15:41:00,65.8,11.8,30.23,East,88,0.0,8.0,12,0.00,,---,0.00,VWS V14.00,2013-03-02 21:41:00,
2013-03-02 15:44:00,66.1,12.0,30.23,East,88,0.0,8.0,12,0.00,,---,0.00,VWS V14.00,2013-03-02 21:44:00,
2013-03-02 15:46:00,66.4,12.3,30.23,East,88,0.0,8.0,12,0.00,,---,0.00,VWS V14.00,2013-03-02 21:46:00,
2013-03-02 15:49:00,66.4,10.3,30.23,East,83,7.0,8.0,11,0.00,,---,0.00,VWS V14.00,2013-03-02 21:49:00,
2013-03-02 15:51:00,66.3,12.2,30.23,East,80,8.0,8.0,12,0.00,,---,0.00,VWS V14.00,2013-03-02 21:51:00,
2013-03-02 15:54:00,66.1,10.1,30.23,ENE,76,5.0,8.0,11,0.00,,---,0.00,VWS V14.00,2013-03-02 21:54:00,
2013-03-02 15:55:00,66.1,10.1,30.23,ENE,76,1.0,8.0,11,0.00,,---,0.00,VWS V14.00,2013-03-02 21:55:00,
2013-03-02 15:56:00,66.0,12.0,30.23,ENE,76,0.0,8.0,12,0.00,,---,0.00,VWS V14.00,2013-03-02 21:56:00,
2013-03-02 15:59:00,66.0,12.0,30.23,ENE,75,0.0,8.0,12,0.00,,---,0.00,VWS V14.00,2013-03-02 21:59:00,
2013-03-02 16:00:00,66.0,10.0,30.23,ENE,75,0.0,0.0,11,0.00,,---,0.00,VWS V14.00,2013-03-02 22:00:00,
2013-03-02 16:01:00,66.1,10.1,30.23,ENE,75,5.0,5.0,11,0.00,,---,0.00,VWS V14.00,2013-03-02 22:01:00,
2013-03-02 16:05:00,65.8,9.9,30.23,ENE,64,0.0,8.0,11,0.00,,---,0.00,VWS V14.00,2013-03-02 22:05:00,
2013-03-02 16:06:00,65.8,9.9,30.23,ENE,64,0.0,8.0,11,0.00,,---,0.00,VWS V14.00,2013-03-02 22:06:00,
2013-03-02 16:10:00,66.0,10.0,30.23,ENE,64,0.0,8.0,11,0.00,,---,0.00,VWS V14.00,2013-03-02 22:10:00,
2013-03-02 16:11:00,66.1,10.1,30.23,ENE,64,4.0,8.0,11,0.00,,---,0.00,VWS V14.00,2013-03-02 22:11:00,
2013-03-02 16:12:00,66.1,10.1,30.23,ENE,64,4.0,8.0,11,0.00,,---,0.00,VWS V14.00,2013-03-02 22:12:00,
2013-03-02 16:15:00,65.8,11.8,30.23,ENE,65,0.0,9.0,12,0.00,,---,0.00,VWS V14.00,2013-03-02 22:15:00,
2013-03-02 16:17:00,66.0,12.0,30.23,ENE,66,10.0,10.0,12,0.00,,---,0.00,VWS V14.00,2013-03-02 22:17:00,
2013-03-02 16:20:00,65.5,9.6,30.23,ENE,66,0.0,10.0,11,0.00,,---,0.00,VWS V14.00,2013-03-02 22:20:00,
2013-03-02 16:21:00,65.6,11.6,30.23,ENE,66,0.0,10.0,12,0.00,,---,0.00,VWS V14.00,2013-03-02 22:21:00,
2013-03-02 16:22:00,65.8,11.8,30.23,ENE,66,0.0,10.0,12,0.00,,---,0.00,VWS V14.00,2013-03-02 22:22:00,
2013-03-02 16:25:00,65.6,11.6,30.23,ENE,66,0.0,10.0,12,0.00,,---,0.00,VWS V14.00,2013-03-02 22:25:00,
2013-03-02 16:26:00,65.6,11.6,30.23,ENE,66,0.0,10.0,12,0.00,,---,0.00,VWS V14.00,2013-03-02 22:26:00,
2013-03-02 16:27:00,65.6,11.6,30.23,ENE,66,0.0,10.0,12,0.00,,---,0.00,VWS V14.00,2013-03-02 22:27:00,
2013-03-02 16:30:00,65.8,9.9,30.22,ENE,66,0.0,0.0,11,0.00,,---,0.00,VWS V14.00,2013-03-02 22:30:00,
2013-03-02 16:31:00,65.8,9.9,30.22,ENE,66,0.0,0.0,11,0.00,,---,0.00,VWS V14.00,2013-03-02 22:31:00,
2013-03-02 16:32:00,66.0,12.0,30.22,ENE,66,0.0,1.0,12,0.00,,---,0.00,VWS V14.00,2013-03-02 22:32:00,
2013-03-02 16:35:00,66.0,12.0,30.22,ENE,66,2.0,3.0,12,0.00,,---,0.00,VWS V14.00,2013-03-02 22:35:00,
2013-03-02 16:36:00,65.8,11.8,30.22,ENE,66,3.0,5.0,12,0.00,,---,0.00,VWS V14.00,2013-03-02 22:36:00,
2013-03-02 16:37:00,65.6,11.6,30.22,ENE,64,6.0,7.0,12,0.00,,---,0.00,VWS V14.00,2013-03-02 22:37:00,
2013-03-02 16:38:00,65.8,11.8,30.22,ENE,64,1.0,7.0,12,0.00,,---,0.00,VWS V14.00,2013-03-02 22:38:00,
2013-03-02 16:40:00,65.6,11.6,30.22,ENE,64,1.0,7.0,12,0.00,,---,0.00,VWS V14.00,2013-03-02 22:40:00,
2013-03-02 16:41:00,65.5,9.6,30.22,ENE,64,0.0,7.0,11,0.00,,---,0.00,VWS V14.00,2013-03-02 22:41:00,
2013-03-02 16:42:00,65.5,11.6,30.22,ENE,64,0.0,7.0,12,0.00,,---,0.00,VWS V14.00,2013-03-02 22:42:00,
2013-03-02 16:43:00,65.3,11.4,30.22,ENE,64,0.0,7.0,12,0.00,,---,0.00,VWS V14.00,2013-03-02 22:43:00,
2013-03-02 16:45:00,65.5,11.6,30.22,ENE,64,0.0,7.0,12,0.00,,---,0.00,VWS V14.00,2013-03-02 22:45:00,
2013-03-02 16:47:00,65.6,11.6,30.22,ENE,64,0.0,7.0,12,0.00,,---,0.00,VWS V14.00,2013-03-02 22:47:00,
2013-03-02 16:48:00,65.8,11.8,30.22,ENE,64,3.0,7.0,12,0.00,,---,0.00,VWS V14.00,2013-03-02 22:48:00,
2013-03-02 16:51:00,65.3,11.4,30.22,ENE,64,0.0,7.0,12,0.00,,---,0.00,VWS V14.00,2013-03-02 22:51:00,
2013-03-02 16:53:00,65.5,11.6,30.22,ENE,64,0.0,7.0,12,0.00,,---,0.00,VWS V14.00,2013-03-02 22:53:00,
2013-03-02 16:55:00,65.3,11.4,30.22,ENE,64,0.0,7.0,12,0.00,,---,0.00,VWS V14.00,2013-03-02 22:55:00,
2013-03-02 16:58:00,65.6,11.6,30.22,ENE,64,0.0,7.0,12,0.00,,---,0.00,VWS V14.00,2013-03-02 22:58:00,
2013-03-02 17:01:00,65.5,11.6,30.22,ENE,64,0.0,1.0,12,0.00,,---,0.00,VWS V14.00,2013-03-02 23:01:00,
2013-03-02 17:03:00,65.3,11.4,30.22,ENE,64,0.0,1.0,12,0.00,,---,0.00,VWS V14.00,2013-03-02 23:03:00,
2013-03-02 17:04:00,65.3,11.4,30.22,ENE,64,0.0,1.0,12,0.00,,---,0.00,VWS V14.00,2013-03-02 23:04:00,
2013-03-02 17:06:00,65.3,11.4,30.22,ENE,64,2.0,2.0,12,0.00,,---,0.00,VWS V14.00,2013-03-02 23:06:00,
2013-03-02 17:08:00,65.2,11.3,30.22,ENE,64,0.0,3.0,12,0.00,,---,0.00,VWS V14.00,2013-03-02 23:08:00,
2013-03-02 17:09:00,65.2,11.3,30.22,ENE,64,3.0,4.0,12,0.00,,---,0.00,VWS V14.00,2013-03-02 23:09:00,
2013-03-02 17:11:00,65.3,11.4,30.22,ENE,64,0.0,4.0,12,0.00,,---,0.00,VWS V14.00,2013-03-02 23:11:00,
2013-03-02 17:13:00,65.5,11.6,30.22,ENE,64,0.0,4.0,12,0.00,,---,0.00,VWS V14.00,2013-03-02 23:13:00,
2013-03-02 17:14:00,65.5,11.6,30.24,ENE,64,0.0,4.0,12,0.00,,---,0.00,VWS V14.00,2013-03-02 23:14:00,
2013-03-02 17:16:00,65.3,9.5,30.24,ENE,64,1.0,6.0,11,0.00,,---,0.00,VWS V14.00,2013-03-02 23:16:00,
2013-03-02 17:18:00,65.2,11.3,30.24,ENE,64,4.0,7.0,12,0.00,,---,0.00,VWS V14.00,2013-03-02 23:18:00,
2013-03-02 17:19:00,64.8,11.0,30.24,ENE,64,2.0,7.0,12,0.00,,---,0.00,VWS V14.00,2013-03-02 23:19:00,
2013-03-02 17:21:00,64.3,10.6,30.24,NE,49,2.0,12.0,12,0.00,,---,0.00,VWS V14.00,2013-03-02 23:21:00,
2013-03-02 17:23:00,64.0,13.9,30.24,NE,48,1.0,12.0,14,0.00,,---,0.00,VWS V14.00,2013-03-02 23:23:00,
2013-03-02 17:24:00,63.9,12.1,30.24,NE,48,0.0,12.0,13,0.00,,---,0.00,VWS V14.00,2013-03-02 23:24:00,
2013-03-02 17:26:00,63.5,11.8,30.24,NE,48,0.0,12.0,13,0.00,,---,0.00,VWS V14.00,2013-03-02 23:26:00,
2013-03-02 17:28:00,63.5,11.8,30.24,NE,48,2.0,12.0,13,0.00,,---,0.00,VWS V14.00,2013-03-02 23:28:00,
2013-03-02 17:29:00,63.4,11.7,30.25,NE,48,0.0,12.0,13,0.00,,---,0.00,VWS V14.00,2013-03-02 23:29:00,
2013-03-02 17:31:00,63.4,11.7,30.25,NE,48,2.0,5.0,13,0.00,,---,0.00,VWS V14.00,2013-03-02 23:31:00,
2013-03-02 17:33:00,63.4,9.9,30.25,NE,48,2.0,5.0,12,0.00,,---,0.00,VWS V14.00,2013-03-02 23:33:00,
2013-03-02 17:34:00,63.4,11.7,30.25,NE,48,1.0,5.0,13,0.00,,---,0.00,VWS V14.00,2013-03-02 23:34:00,
2013-03-02 17:37:00,63.4,11.7,30.25,NE,48,0.0,5.0,13,0.00,,---,0.00,VWS V14.00,2013-03-02 23:37:00,
2013-03-02 17:38:00,63.1,11.5,30.25,NE,48,1.0,6.0,13,0.00,,---,0.00,VWS V14.00,2013-03-02 23:38:00,
2013-03-02 17:40:00,62.9,11.3,30.25,NE,48,0.0,6.0,13,0.00,,---,0.00,VWS V14.00,2013-03-02 23:40:00,
2013-03-02 17:42:00,62.9,11.3,30.25,NE,48,0.0,6.0,13,0.00,,---,0.00,VWS V14.00,2013-03-02 23:42:00,
2013-03-02 17:43:00,62.9,11.3,30.25,NE,48,0.0,6.0,13,0.00,,---,0.00,VWS V14.00,2013-03-02 23:43:00,
2013-03-02 17:45:00,62.7,11.2,30.25,NE,48,0.0,6.0,13,0.00,,---,0.00,VWS V14.00,2013-03-02 23:45:00,
2013-03-02 17:47:00,62.6,11.1,30.25,NE,48,0.0,6.0,13,0.00,,---,0.00,VWS V14.00,2013-03-02 23:47:00,
2013-03-02 17:48:00,62.4,10.9,30.25,NE,48,2.0,6.0,13,0.00,,---,0.00,VWS V14.00,2013-03-02 23:48:00,
2013-03-02 17:50:00,62.3,10.9,30.25,NE,48,2.0,6.0,13,0.00,,---,0.00,VWS V14.00,2013-03-02 23:50:00,
2013-03-02 17:52:00,62.1,12.4,30.25,NE,48,3.0,6.0,14,0.00,,---,0.00,VWS V14.00,2013-03-02 23:52:00,
2013-03-02 17:53:00,62.0,12.3,30.25,NE,48,2.0,6.0,14,0.00,,---,0.00,VWS V14.00,2013-03-02 23:53:00,
2013-03-02 17:55:00,61.8,12.1,30.25,NE,48,1.0,8.0,14,0.00,,---,0.00,VWS V14.00,2013-03-02 23:55:00,
2013-03-02 17:56:00,61.8,12.1,30.25,NE,48,1.0,8.0,14,0.00,,---,0.00,VWS V14.00,2013-03-02 23:56:00,
2013-03-02 17:57:00,61.5,11.9,30.25,NE,48,3.0,8.0,14,0.00,,---,0.00,VWS V14.00,2013-03-02 23:57:00,
2013-03-02 17:58:00,61.5,11.9,30.25,NE,48,0.0,8.0,14,0.00,,---,0.00,VWS V14.00,2013-03-02 23:58:00,
2013-03-02 18:00:00,61.5,11.9,30.26,NE,48,0.0,0.0,14,0.00,,---,0.00,VWS V14.00,2013-03-03 00:00:00,
2013-03-02 18:01:00,61.3,11.7,30.26,NE,48,0.0,0.0,14,0.00,,---,0.00,VWS V14.00,2013-03-03 00:01:00,
2013-03-02 18:02:00,61.3,11.7,30.26,NE,48,0.0,0.0,14,0.00,,---,0.00,VWS V14.00,2013-03-03 00:02:00,
2013-03-02 18:03:00,61.3,11.7,30.26,NE,48,0.0,0.0,14,0.00,,---,0.00,VWS V14.00,2013-03-03 00:03:00,
2013-03-02 18:05:00,61.3,11.7,30.26,NE,48,1.0,2.0,14,0.00,,---,0.00,VWS V14.00,2013-03-03 00:05:00,
2013-03-02 18:06:00,61.3,11.7,30.26,NE,48,0.0,2.0,14,0.00,,---,0.00,VWS V14.00,2013-03-03 00:06:00,
2013-03-02 18:07:00,61.2,11.6,30.26,NE,48,0.0,2.0,14,0.00,,---,0.00,VWS V14.00,2013-03-03 00:07:00,
2013-03-02 18:08:00,61.2,11.6,30.26,NE,48,1.0,3.0,14,0.00,,---,0.00,VWS V14.00,2013-03-03 00:08:00,
2013-03-02 18:10:00,61.0,11.5,30.26,NE,48,1.0,3.0,14,0.00,,---,0.00,VWS V14.00,2013-03-03 00:10:00,
2013-03-02 18:11:00,60.9,11.4,30.26,NE,48,0.0,3.0,14,0.00,,---,0.00,VWS V14.00,2013-03-03 00:11:00,
2013-03-02 18:12:00,60.9,11.4,30.26,NE,48,0.0,3.0,14,0.00,,---,0.00,VWS V14.00,2013-03-03 00:12:00,
2013-03-02 18:13:00,60.9,11.4,30.26,NE,48,0.0,3.0,14,0.00,,---,0.00,VWS V14.00,2013-03-03 00:13:00,
2013-03-02 18:15:00,60.7,11.2,30.27,NE,48,0.0,3.0,14,0.00,,---,0.00,VWS V14.00,2013-03-03 00:15:00,
2013-03-02 18:16:00,60.5,11.1,30.27,NE,48,0.0,3.0,14,0.00,,---,0.00,VWS V14.00,2013-03-03 00:16:00,
2013-03-02 18:17:00,60.4,11.0,30.27,NE,48,0.0,3.0,14,0.00,,---,0.00,VWS V14.00,2013-03-03 00:17:00,
2013-03-02 18:18:00,60.2,10.9,30.27,NE,48,0.0,3.0,14,0.00,,---,0.00,VWS V14.00,2013-03-03 00:18:00,
2013-03-02 18:20:00,60.1,10.8,30.27,NE,48,0.0,3.0,14,0.00,,---,0.00,VWS V14.00,2013-03-03 00:20:00,
2013-03-02 18:21:00,60.1,10.8,30.27,NE,48,0.0,3.0,14,0.00,,---,0.00,VWS V14.00,2013-03-03 00:21:00,
2013-03-02 18:22:00,59.9,10.6,30.27,NE,48,0.0,3.0,14,0.00,,---,0.00,VWS V14.00,2013-03-03 00:22:00,
2013-03-02 18:23:00,59.8,10.5,30.27,NE,48,0.0,3.0,14,0.00,,---,0.00,VWS V14.00,2013-03-03 00:23:00,
2013-03-02 18:25:00,59.6,10.4,30.27,NE,48,0.0,3.0,14,0.00,,---,0.00,VWS V14.00,2013-03-03 00:25:00,
2013-03-02 18:27:00,59.5,11.8,30.27,NE,48,0.0,3.0,15,0.00,,---,0.00,VWS V14.00,2013-03-03 00:27:00,
2013-03-02 18:28:00,59.3,11.7,30.27,NE,48,0.0,3.0,15,0.00,,---,0.00,VWS V14.00,2013-03-03 00:28:00,
2013-03-02 18:30:00,59.2,11.6,30.29,NE,48,0.0,0.0,15,0.00,,---,0.00,VWS V14.00,2013-03-03 00:30:00,
2013-03-02 18:31:00,59.0,11.4,30.29,NE,48,0.0,0.0,15,0.00,,---,0.00,VWS V14.00,2013-03-03 00:31:00,
2013-03-02 18:32:00,59.0,11.4,30.29,NE,48,0.0,0.0,15,0.00,,---,0.00,VWS V14.00,2013-03-03 00:32:00,
2013-03-02 18:34:00,58.9,11.4,30.29,NE,48,0.0,0.0,15,0.00,,---,0.00,VWS V14.00,2013-03-03 00:34:00,
2013-03-02 18:35:00,58.7,11.2,30.29,NE,48,0.0,0.0,15,0.00,,---,0.00,VWS V14.00,2013-03-03 00:35:00,
2013-03-02 18:37:00,58.6,11.1,30.29,NE,48,0.0,0.0,15,0.00,,---,0.00,VWS V14.00,2013-03-03 00:37:00,
2013-03-02 18:39:00,58.3,10.9,30.29,NE,48,0.0,0.0,15,0.00,,---,0.00,VWS V14.00,2013-03-03 00:39:00,
2013-03-02 18:40:00,58.1,10.7,30.29,NE,48,0.0,0.0,15,0.00,,---,0.00,VWS V14.00,2013-03-03 00:40:00,
2013-03-02 18:42:00,58.0,10.6,30.29,NE,48,0.0,0.0,15,0.00,,---,0.00,VWS V14.00,2013-03-03 00:42:00,
2013-03-02 18:43:00,57.8,10.5,30.29,NE,48,0.0,0.0,15,0.00,,---,0.00,VWS V14.00,2013-03-03 00:43:00,
2013-03-02 18:44:00,57.6,11.8,30.29,NE,48,0.0,0.0,16,0.00,,---,0.00,VWS V14.00,2013-03-03 00:44:00,
2013-03-02 18:45:00,57.3,11.5,30.29,NE,48,0.0,0.0,16,0.00,,---,0.00,VWS V14.00,2013-03-03 00:45:00,
2013-03-02 18:47:00,57.2,11.4,30.29,NE,48,0.0,0.0,16,0.00,,---,0.00,VWS V14.00,2013-03-03 00:47:00,
2013-03-02 18:48:00,57.0,11.3,30.29,NE,48,0.0,0.0,16,0.00,,---,0.00,VWS V14.00,2013-03-03 00:48:00,
2013-03-02 18:49:00,56.9,11.2,30.29,NE,48,0.0,0.0,16,0.00,,---,0.00,VWS V14.00,2013-03-03 00:49:00,
2013-03-02 18:51:00,56.6,10.9,30.29,NE,48,0.0,0.0,16,0.00,,---,0.00,VWS V14.00,2013-03-03 00:51:00,
2013-03-02 18:52:00,56.5,10.9,30.29,NE,48,0.0,0.0,16,0.00,,---,0.00,VWS V14.00,2013-03-03 00:52:00,
2013-03-02 18:53:00,56.3,10.7,30.29,NE,48,0.0,0.0,16,0.00,,---,0.00,VWS V14.00,2013-03-03 00:53:00,
2013-03-02 18:54:00,56.3,10.7,30.29,NE,48,0.0,0.0,16,0.00,,---,0.00,VWS V14.00,2013-03-03 00:54:00,
2013-03-02 18:56:00,56.2,10.6,30.29,NE,48,0.0,0.0,16,0.00,,---,0.00,VWS V14.00,2013-03-03 00:56:00,
2013-03-02 18:57:00,56.0,10.5,30.29,NE,48,0.0,0.0,16,0.00,,---,0.00,VWS V14.00,2013-03-03 00:57:00,
2013-03-02 18:58:00,55.7,10.2,30.29,NE,48,0.0,0.0,16,0.00,,---,0.00,VWS V14.00,2013-03-03 00:58:00,
2013-03-02 18:59:00,55.3,11.2,30.32,NE,48,0.0,0.0,17,0.00,,---,0.00,VWS V14.00,2013-03-03 00:59:00,
2013-03-02 19:01:00,54.8,10.8,30.32,NE,48,0.0,0.0,17,0.00,,---,0.00,VWS V14.00,2013-03-03 01:01:00,
2013-03-02 19:02:00,54.5,10.6,30.32,NE,48,0.0,0.0,17,0.00,,---,0.00,VWS V14.00,2013-03-03 01:02:00,
2013-03-02 19:03:00,54.2,10.4,30.32,NE,48,0.0,0.0,17,0.00,,---,0.00,VWS V14.00,2013-03-03 01:03:00,
2013-03-02 19:04:00,53.9,10.1,30.32,NE,48,0.0,0.0,17,0.00,,---,0.00,VWS V14.00,2013-03-03 01:04:00,
2013-03-02 19:06:00,53.8,10.0,30.32,NE,48,0.0,0.0,17,0.00,,---,0.00,VWS V14.00,2013-03-03 01:06:00,
2013-03-02 19:07:00,53.3,9.6,30.32,NE,48,0.0,0.0,17,0.00,,---,0.00,VWS V14.00,2013-03-03 01:07:00,
2013-03-02 19:08:00,53.1,10.7,30.32,NE,48,0.0,0.0,18,0.00,,---,0.00,VWS V14.00,2013-03-03 01:08:00,
2013-03-02 19:09:00,52.8,10.5,30.32,NE,48,0.0,0.0,18,0.00,,---,0.00,VWS V14.00,2013-03-03 01:09:00,
2013-03-02 19:11:00,52.6,10.3,30.32,NE,48,0.0,0.0,18,0.00,,---,0.00,VWS V14.00,2013-03-03 01:11:00,
2013-03-02 19:12:00,52.2,10.0,30.32,NE,48,0.0,0.0,18,0.00,,---,0.00,VWS V14.00,2013-03-03 01:12:00,
2013-03-02 19:13:00,52.2,10.0,30.32,NE,48,0.0,0.0,18,0.00,,---,0.00,VWS V14.00,2013-03-03 01:13:00,
2013-03-02 19:15:00,51.7,9.6,30.32,NE,48,0.0,0.0,18,0.00,,---,0.00,VWS V14.00,2013-03-03 01:15:00,
2013-03-02 19:16:00,51.6,9.5,30.32,NE,48,0.0,0.0,18,0.00,,---,0.00,VWS V14.00,2013-03-03 01:16:00,
2013-03-02 19:18:00,51.3,9.2,30.32,NE,48,0.0,0.0,18,0.00,,---,0.00,VWS V14.00,2013-03-03 01:18:00,
2013-03-02 19:20:00,51.0,10.2,30.32,NE,48,0.0,0.0,19,0.00,,---,0.00,VWS V14.00,2013-03-03 01:20:00,
2013-03-02 19:21:00,50.8,10.0,30.32,NE,48,0.0,0.0,19,0.00,,---,0.00,VWS V14.00,2013-03-03 01:21:00,
2013-03-02 19:23:00,50.8,10.0,30.32,NE,48,0.0,0.0,19,0.00,,---,0.00,VWS V14.00,2013-03-03 01:23:00,
2013-03-02 19:25:00,50.7,10.0,30.32,NE,48,0.0,0.0,19,0.00,,---,0.00,VWS V14.00,2013-03-03 01:25:00,
2013-03-02 19:26:00,50.4,9.7,30.32,NE,48,0.0,0.0,19,0.00,,---,0.00,VWS V14.00,2013-03-03 01:26:00,
2013-03-02 19:28:00,49.9,9.3,30.32,NE,48,0.0,0.0,19,0.00,,---,0.00,VWS V14.00,2013-03-03 01:28:00,
2013-03-02 19:30:00,49.4,11.1,30.34,NE,48,0.0,0.0,21,0.00,,---,0.00,VWS V14.00,2013-03-03 01:30:00,
2013-03-02 19:32:00,48.9,10.7,30.34,NE,48,0.0,0.0,21,0.00,,---,0.00,VWS V14.00,2013-03-03 01:32:00,
2013-03-02 19:33:00,48.8,10.6,30.34,NE,48,0.0,0.0,21,0.00,,---,0.00,VWS V14.00,2013-03-03 01:33:00,
2013-03-02 19:35:00,48.2,11.1,30.34,NE,48,0.0,0.0,22,0.00,,---,0.00,VWS V14.00,2013-03-03 01:35:00,
2013-03-02 19:37:00,47.9,10.9,30.34,NE,48,0.0,0.0,22,0.00,,---,0.00,VWS V14.00,2013-03-03 01:37:00,
2013-03-02 19:38:00,47.4,10.5,30.34,NE,48,0.0,0.0,22,0.00,,---,0.00,VWS V14.00,2013-03-03 01:38:00,
2013-03-02 19:39:00,47.4,10.5,30.34,NE,48,0.0,0.0,22,0.00,,---,0.00,VWS V14.00,2013-03-03 01:39:00,
2013-03-02 19:40:00,47.1,10.2,30.34,NE,48,0.0,0.0,22,0.00,,---,0.00,VWS V14.00,2013-03-03 01:40:00,
2013-03-02 19:42:00,46.5,10.7,30.34,NE,48,0.0,0.0,23,0.00,,---,0.00,VWS V14.00,2013-03-03 01:42:00,
2013-03-02 19:43:00,46.2,10.5,30.34,NE,48,0.0,0.0,23,0.00,,---,0.00,VWS V14.00,2013-03-03 01:43:00,
2013-03-02 19:44:00,46.2,10.5,30.36,NE,48,0.0,0.0,23,0.00,,---,0.00,VWS V14.00,2013-03-03 01:44:00,
2013-03-02 19:45:00,46.0,10.3,30.36,NE,48,0.0,0.0,23,0.00,,---,0.00,VWS V14.00,2013-03-03 01:45:00,
2013-03-02 19:47:00,45.5,9.9,30.36,NE,48,0.0,0.0,23,0.00,,---,0.00,VWS V14.00,2013-03-03 01:47:00,
2013-03-02 19:49:00,45.2,9.6,30.36,NE,48,0.0,0.0,23,0.00,,---,0.00,VWS V14.00,2013-03-03 01:49:00,
2013-03-02 19:50:00,45.1,9.5,30.36,NE,48,0.0,0.0,23,0.00,,---,0.00,VWS V14.00,2013-03-03 01:50:00,
2013-03-02 19:52:00,44.5,10.0,30.36,NE,48,0.0,0.0,24,0.00,,---,0.00,VWS V14.00,2013-03-03 01:52:00,
2013-03-02 19:54:00,43.9,9.5,30.36,NE,48,0.0,0.0,24,0.00,,---,0.00,VWS V14.00,2013-03-03 01:54:00,
2013-03-02 19:55:00,43.6,9.2,30.36,NE,48,0.0,0.0,24,0.00,,---,0.00,VWS V14.00,2013-03-03 01:55:00,
2013-03-02 19:57:00,43.1,8.8,30.36,NE,48,0.0,0.0,24,0.00,,---,0.00,VWS V14.00,2013-03-03 01:57:00,
2013-03-02 19:59:00,42.8,9.4,30.38,NE,48,0.0,0.0,25,0.00,,---,0.00,VWS V14.00,2013-03-03 01:59:00,
2013-03-02 20:00:00,42.6,9.3,30.38,NE,48,0.0,0.0,25,0.00,,---,0.00,VWS V14.00,2013-03-03 02:00:00,
2013-03-02 20:02:00,42.2,8.9,30.38,NE,48,0.0,0.0,25,0.00,,---,0.00,VWS V14.00,2013-03-03 02:02:00,
2013-03-02 20:04:00,41.9,8.7,30.38,NE,48,0.0,0.0,25,0.00,,---,0.00,VWS V14.00,2013-03-03 02:04:00,
2013-03-02 20:05:00,41.8,8.6,30.38,NE,48,0.0,0.0,25,0.00,,---,0.00,VWS V14.00,2013-03-03 02:05:00,
2013-03-02 20:07:00,41.3,8.1,30.38,NE,48,0.0,0.0,25,0.00,,---,0.00,VWS V14.00,2013-03-03 02:07:00,
2013-03-02 20:09:00,41.2,8.1,30.38,NE,48,0.0,0.0,25,0.00,,---,0.00,VWS V14.00,2013-03-03 02:09:00,
2013-03-02 20:10:00,40.9,8.7,30.38,NE,48,0.0,0.0,26,0.00,,---,0.00,VWS V14.00,2013-03-03 02:10:00,
2013-03-02 20:13:00,40.8,8.6,30.38,NE,48,0.0,0.0,26,0.00,,---,0.00,VWS V14.00,2013-03-03 02:13:00,
2013-03-02 20:14:00,40.6,9.2,30.27,NE,48,0.0,0.0,27,0.00,,---,0.00,VWS V14.00,2013-03-03 02:14:00,
2013-03-02 20:15:00,40.6,9.2,30.27,NE,48,0.0,0.0,27,0.00,,---,0.00,VWS V14.00,2013-03-03 02:15:00,
2013-03-02 20:18:00,40.2,7.2,30.27,NE,48,0.0,0.0,25,0.00,,---,0.00,VWS V14.00,2013-03-03 02:18:00,
2013-03-02 20:19:00,40.1,8.0,30.27,NE,48,0.0,0.0,26,0.00,,---,0.00,VWS V14.00,2013-03-03 02:19:00,
2013-03-02 20:20:00,39.9,6.9,30.27,NE,48,0.0,0.0,25,0.00,,---,0.00,VWS V14.00,2013-03-03 02:20:00,
2013-03-02 20:23:00,39.5,7.5,30.27,NE,48,0.0,0.0,26,0.00,,---,0.00,VWS V14.00,2013-03-03 02:23:00,
2013-03-02 20:24:00,39.3,7.3,30.27,NE,48,0.0,0.0,26,0.00,,---,0.00,VWS V14.00,2013-03-03 02:24:00,
2013-03-02 20:25:00,39.2,7.2,30.27,NE,48,0.0,0.0,26,0.00,,---,0.00,VWS V14.00,2013-03-03 02:25:00,
2013-03-02 20:28:00,39.1,7.9,30.27,NE,48,0.0,0.0,27,0.00,,---,0.00,VWS V14.00,2013-03-03 02:28:00,
2013-03-02 20:29:00,39.1,7.9,30.28,NE,48,0.0,0.0,27,0.00,,---,0.00,VWS V14.00,2013-03-03 02:29:00,
2013-03-02 20:30:00,39.1,7.9,30.28,NE,48,0.0,0.0,27,0.00,,---,0.00,VWS V14.00,2013-03-03 02:30:00,
2013-03-02 20:33:00,38.9,7.8,30.28,NE,48,0.0,0.0,27,0.00,,---,0.00,VWS V14.00,2013-03-03 02:33:00,
2013-03-02 20:34:00,38.9,7.8,30.28,NE,48,0.0,0.0,27,0.00,,---,0.00,VWS V14.00,2013-03-03 02:34:00,
2013-03-02 20:35:00,38.9,7.8,30.28,NE,48,0.0,0.0,27,0.00,,---,0.00,VWS V14.00,2013-03-03 02:35:00,
2013-03-02 20:38:00,38.6,7.5,30.28,NE,48,0.0,0.0,27,0.00,,---,0.00,VWS V14.00,2013-03-03 02:38:00,
2013-03-02 20:40:00,38.5,7.4,30.28,NE,48,0.0,0.0,27,0.00,,---,0.00,VWS V14.00,2013-03-03 02:40:00,
2013-03-02 20:43:00,37.9,7.7,30.28,NE,48,0.0,0.0,28,0.00,,---,0.00,VWS V14.00,2013-03-03 02:43:00,
2013-03-02 20:45:00,37.9,7.7,30.28,NE,48,0.0,0.0,28,0.00,,---,0.00,VWS V14.00,2013-03-03 02:45:00,
2013-03-02 20:46:00,37.9,7.7,30.28,NE,48,0.0,0.0,28,0.00,,---,0.00,VWS V14.00,2013-03-03 02:46:00,
2013-03-02 20:48:00,37.6,6.7,30.28,NE,48,0.0,0.0,27,0.00,,---,0.00,VWS V14.00,2013-03-03 02:48:00,
2013-03-02 20:50:00,37.3,7.2,30.28,NE,48,0.0,0.0,28,0.00,,---,0.00,VWS V14.00,2013-03-03 02:50:00,
2013-03-02 20:51:00,37.3,6.4,30.28,NE,48,0.0,0.0,27,0.00,,---,0.00,VWS V14.00,2013-03-03 02:51:00,
2013-03-02 20:54:00,36.9,6.1,30.28,NE,48,0.0,0.0,27,0.00,,---,0.00,VWS V14.00,2013-03-03 02:54:00,
2013-03-02 20:55:00,36.9,6.1,30.28,NE,48,0.0,0.0,27,0.00,,---,0.00,VWS V14.00,2013-03-03 02:55:00,
2013-03-02 20:56:00,36.9,6.1,30.28,NE,48,0.0,0.0,27,0.00,,---,0.00,VWS V14.00,2013-03-03 02:56:00,
2013-03-02 20:59:00,36.6,7.4,30.29,NE,48,0.0,0.0,29,0.00,,---,0.00,VWS V14.00,2013-03-03 02:59:00,
2013-03-02 21:00:00,36.6,7.4,30.29,NE,48,0.0,0.0,29,0.00,,---,0.00,VWS V14.00,2013-03-03 03:00:00,
2013-03-02 21:01:00,36.6,7.4,30.29,NE,48,0.0,0.0,29,0.00,,---,0.00,VWS V14.00,2013-03-03 03:01:00,
2013-03-02 21:04:00,36.6,7.4,30.29,NE,48,0.0,0.0,29,0.00,,---,0.00,VWS V14.00,2013-03-03 03:04:00,
2013-03-02 21:05:00,36.6,7.4,30.29,NE,48,0.0,0.0,29,0.00,,---,0.00,VWS V14.00,2013-03-03 03:05:00,
2013-03-02 21:06:00,36.6,6.6,30.29,NE,48,0.0,0.0,28,0.00,,---,0.00,VWS V14.00,2013-03-03 03:06:00,
2013-03-02 21:09:00,36.6,7.4,30.29,NE,48,0.0,0.0,29,0.00,,---,0.00,VWS V14.00,2013-03-03 03:09:00,
2013-03-02 21:10:00,36.6,8.8,30.29,NE,48,0.0,0.0,31,0.00,,---,0.00,VWS V14.00,2013-03-03 03:10:00,
2013-03-02 21:11:00,36.6,8.8,30.29,NE,48,0.0,0.0,31,0.00,,---,0.00,VWS V14.00,2013-03-03 03:11:00,
2013-03-02 21:14:00,34.6,6.4,30.21,NE,48,0.0,0.0,30,0.00,,---,0.00,VWS V14.00,2013-03-03 03:14:00,
2013-03-02 21:15:00,34.4,7.6,30.21,NE,48,0.0,0.0,32,0.00,,---,0.00,VWS V14.00,2013-03-03 03:15:00,
2013-03-02 21:16:00,34.4,6.9,30.21,NE,48,0.0,0.0,31,0.00,,---,0.00,VWS V14.00,2013-03-03 03:16:00,
2013-03-02 21:19:00,34.4,6.9,30.21,NE,48,0.0,0.0,31,0.00,,---,0.00,VWS V14.00,2013-03-03 03:19:00,
2013-03-02 21:20:00,34.4,6.9,30.21,NE,48,0.0,0.0,31,0.00,,---,0.00,VWS V14.00,2013-03-03 03:20:00,
2013-03-02 21:21:00,34.4,6.9,30.21,NE,48,0.0,0.0,31,0.00,,---,0.00,VWS V14.00,2013-03-03 03:21:00,
2013-03-02 21:24:00,33.7,6.3,30.21,NE,48,0.0,0.0,31,0.00,,---,0.00,VWS V14.00,2013-03-03 03:24:00,
2013-03-02 21:25:00,33.7,7.0,30.21,NE,48,0.0,0.0,32,0.00,,---,0.00,VWS V14.00,2013-03-03 03:25:00,
2013-03-02 21:26:00,33.7,7.0,30.21,NE,48,0.0,0.0,32,0.00,,---,0.00,VWS V14.00,2013-03-03 03:26:00,
2013-03-02 21:30:00,33.8,7.1,30.23,NE,48,0.0,0.0,32,0.00,,---,0.00,VWS V14.00,2013-03-03 03:30:00,
2013-03-02 21:32:00,33.8,6.4,30.23,NE,48,0.0,0.0,31,0.00,,---,0.00,VWS V14.00,2013-03-03 03:32:00,
2013-03-02 21:35:00,33.8,7.1,30.23,NE,48,0.0,0.0,32,0.00,,---,0.00,VWS V14.00,2013-03-03 03:35:00,
2013-03-02 21:37:00,33.8,7.8,30.23,NE,48,0.0,0.0,33,0.00,,---,0.00,VWS V14.00,2013-03-03 03:37:00,
2013-03-02 21:40:00,34.1,5.9,30.23,NE,48,0.0,0.0,30,0.00,,---,0.00,VWS V14.00,2013-03-03 03:40:00,
2013-03-02 21:42:00,34.1,5.9,30.23,NE,48,0.0,0.0,30,0.00,,---,0.00,VWS V14.00,2013-03-03 03:42:00,
2013-03-02 21:46:00,34.0,7.3,30.23,NE,48,0.0,0.0,32,0.00,,---,0.00,VWS V14.00,2013-03-03 03:46:00,
2013-03-02 21:47:00,33.8,7.1,30.23,NE,48,0.0,0.0,32,0.00,,---,0.00,VWS V14.00,2013-03-03 03:47:00,
2013-03-02 21:51:00,33.7,7.0,30.23,NE,48,0.0,0.0,32,0.00,,---,0.00,VWS V14.00,2013-03-03 03:51:00,
2013-03-02 21:52:00,33.7,7.0,30.23,NE,48,0.0,0.0,32,0.00,,---,0.00,VWS V14.00,2013-03-03 03:52:00,
2013-03-02 21:56:00,33.8,7.8,30.23,NE,48,0.0,0.0,33,0.00,,---,0.00,VWS V14.00,2013-03-03 03:56:00,
2013-03-02 21:57:00,33.8,8.4,30.23,NE,48,0.0,0.0,34,0.00,,---,0.00,VWS V14.00,2013-03-03 03:57:00,
2013-03-02 22:01:00,33.7,6.3,30.23,NE,48,0.0,0.0,31,0.00,,---,0.00,VWS V14.00,2013-03-03 04:01:00,
2013-03-02 22:02:00,33.5,6.8,30.23,NE,48,0.0,0.0,32,0.00,,---,0.00,VWS V14.00,2013-03-03 04:02:00,
2013-03-02 22:03:00,33.5,6.8,30.23,NE,48,0.0,0.0,32,0.00,,---,0.00,VWS V14.00,2013-03-03 04:03:00,
2013-03-02 22:06:00,33.1,5.8,30.23,NE,48,0.0,0.0,31,0.00,,---,0.00,VWS V14.00,2013-03-03 04:06:00,
2013-03-02 22:07:00,32.9,5.6,30.23,NE,48,0.0,0.0,31,0.00,,---,0.00,VWS V14.00,2013-03-03 04:07:00,
2013-03-02 22:08:00,32.9,5.6,30.23,NE,48,0.0,0.0,31,0.00,,---,0.00,VWS V14.00,2013-03-03 04:08:00,
2013-03-02 22:11:00,32.7,6.1,30.23,NE,48,0.0,0.0,32,0.00,,---,0.00,VWS V14.00,2013-03-03 04:11:00,
2013-03-02 22:13:00,32.7,8.1,30.23,NE,48,0.0,0.0,35,0.00,,---,0.00,VWS V14.00,2013-03-03 04:13:00,
2013-03-02 22:16:00,32.9,7.6,30.20,NE,48,0.0,0.0,34,0.00,,---,0.00,VWS V14.00,2013-03-03 04:16:00,
2013-03-02 22:17:00,32.8,7.5,30.20,NE,48,0.0,0.0,34,0.00,,---,0.00,VWS V14.00,2013-03-03 04:17:00,
2013-03-02 22:18:00,32.4,5.2,30.20,NE,48,0.0,0.0,31,0.00,,---,0.00,VWS V14.00,2013-03-03 04:18:00,
2013-03-02 22:21:00,32.1,5.6,30.20,NE,48,0.0,0.0,32,0.00,,---,0.00,VWS V14.00,2013-03-03 04:21:00,
2013-03-02 22:22:00,32.1,5.6,30.20,NE,48,0.0,0.0,32,0.00,,---,0.00,VWS V14.00,2013-03-03 04:22:00,
2013-03-02 22:23:00,32.2,6.3,30.20,NE,48,0.0,0.0,33,0.00,,---,0.00,VWS V14.00,2013-03-03 04:23:00,
2013-03-02 22:26:00,32.1,6.9,30.20,NE,48,0.0,0.0,34,0.00,,---,0.00,VWS V14.00,2013-03-03 04:26:00,
2013-03-02 22:27:00,32.2,7.0,30.20,NE,48,0.0,0.0,34,0.00,,---,0.00,VWS V14.00,2013-03-03 04:27:00,
2013-03-02 22:28:00,32.1,6.9,30.20,NE,48,0.0,0.0,34,0.00,,---,0.00,VWS V14.00,2013-03-03 04:28:00,
2013-03-02 22:31:00,32.1,6.2,30.20,NE,48,0.0,0.0,33,0.00,,---,0.00,VWS V14.00,2013-03-03 04:31:00,
2013-03-02 22:32:00,32.2,7.0,30.20,NE,48,0.0,0.0,34,0.00,,---,0.00,VWS V14.00,2013-03-03 04:32:00,
2013-03-02 22:33:00,32.5,8.5,30.20,NE,48,0.0,0.0,36,0.00,,---,0.00,VWS V14.00,2013-03-03 04:33:00,
2013-03-02 22:34:00,32.5,8.5,30.20,NE,48,0.0,0.0,36,0.00,,---,0.00,VWS V14.00,2013-03-03 04:34:00,
2013-03-02 22:36:00,32.5,7.9,30.20,NE,48,0.0,0.0,35,0.00,,---,0.00,VWS V14.00,2013-03-03 04:36:00,
2013-03-02 22:37:00,32.5,7.3,30.20,NE,48,0.0,0.0,34,0.00,,---,0.00,VWS V14.00,2013-03-03 04:37:00,
2013-03-02 22:38:00,32.5,7.3,30.20,NE,48,0.0,0.0,34,0.00,,---,0.00,VWS V14.00,2013-03-03 04:38:00,
2013-03-02 22:39:00,32.5,7.3,30.20,NE,48,0.0,0.0,34,0.00,,---,0.00,VWS V14.00,2013-03-03 04:39:00,
2013-03-02 22:41:00,32.4,7.8,30.20,NE,48,0.0,0.0,35,0.00,,---,0.00,VWS V14.00,2013-03-03 04:41:00,
2013-03-02 22:42:00,32.5,7.9,30.20,NE,48,0.0,0.0,35,0.00,,---,0.00,VWS V14.00,2013-03-03 04:42:00,
2013-03-02 22:44:00,32.5,7.3,30.20,NE,48,0.0,0.0,34,0.00,,---,0.00,VWS V14.00,2013-03-03 04:44:00,
2013-03-02 22:46:00,32.5,7.3,30.20,NE,48,0.0,0.0,34,0.00,,---,0.00,VWS V14.00,2013-03-03 04:46:00,
2013-03-02 22:47:00,32.5,7.3,30.20,NE,48,0.0,0.0,34,0.00,,---,0.00,VWS V14.00,2013-03-03 04:47:00,
2013-03-02 22:49:00,32.2,6.3,30.20,NE,48,0.0,0.0,33,0.00,,---,0.00,VWS V14.00,2013-03-03 04:49:00,
2013-03-02 22:51:00,31.9,6.7,30.20,NE,48,0.0,0.0,34,0.00,,---,0.00,VWS V14.00,2013-03-03 04:51:00,
2013-03-02 22:52:00,31.9,6.7,30.20,NE,48,0.0,0.0,34,0.00,,---,0.00,VWS V14.00,2013-03-03 04:52:00,
2013-03-02 22:54:00,31.8,6.6,30.20,NE,48,0.0,0.0,34,0.00,,---,0.00,VWS V14.00,2013-03-03 04:54:00,
2013-03-02 22:57:00,31.6,7.7,30.20,NE,48,0.0,0.0,36,0.00,,---,0.00,VWS V14.00,2013-03-03 04:57:00,
2013-03-02 22:59:00,31.6,7.7,30.20,NE,48,0.0,0.0,36,0.00,,---,0.00,VWS V14.00,2013-03-03 04:59:00,
2013-03-02 23:00:00,31.8,7.9,30.20,NE,48,0.0,0.0,36,0.00,,---,0.00,VWS V14.00,2013-03-03 05:00:00,
2013-03-02 23:05:00,31.5,7.0,30.20,NE,48,0.0,0.0,35,0.00,,---,0.00,VWS V14.00,2013-03-03 05:05:00,
2013-03-02 23:10:00,31.0,7.2,30.20,NE,48,0.0,0.0,36,0.00,,---,0.00,VWS V14.00,2013-03-03 05:10:00,
2013-03-02 23:15:00,30.9,7.1,30.19,NE,48,0.0,0.0,36,0.00,,---,0.00,VWS V14.00,2013-03-03 05:15:00,
2013-03-02 23:20:00,30.9,7.1,30.19,NE,48,0.0,0.0,36,0.00,,---,0.00,VWS V14.00,2013-03-03 05:20:00,
2013-03-02 23:25:00,30.3,7.2,30.19,NE,48,0.0,0.0,37,0.00,,---,0.00,VWS V14.00,2013-03-03 05:25:00,
2013-03-02 23:30:00,30.0,6.9,30.20,NE,48,0.0,0.0,37,0.00,,---,0.00,VWS V14.00,2013-03-03 05:30:00,
2013-03-02 23:31:00,30.0,6.9,30.20,NE,48,0.0,0.0,37,0.00,,---,0.00,VWS V14.00,2013-03-03 05:31:00,
2013-03-02 23:35:00,29.7,6.6,30.20,NE,48,0.0,0.0,37,0.00,,---,0.00,VWS V14.00,2013-03-03 05:35:00,
2013-03-02 23:36:00,29.7,7.2,30.20,NE,48,0.0,0.0,38,0.00,,---,0.00,VWS V14.00,2013-03-03 05:36:00,
2013-03-02 23:40:00,29.3,6.3,30.20,NE,48,0.0,0.0,37,0.00,,---,0.00,VWS V14.00,2013-03-03 05:40:00,
2013-03-02 23:41:00,29.3,6.3,30.20,NE,48,0.0,0.0,37,0.00,,---,0.00,VWS V14.00,2013-03-03 05:41:00,
2013-03-02 23:45:00,28.8,6.4,30.20,NE,48,0.0,0.0,38,0.00,,---,0.00,VWS V14.00,2013-03-03 05:45:00,
2013-03-02 23:46:00,28.8,7.0,30.20,NE,48,0.0,0.0,39,0.00,,---,0.00,VWS V14.00,2013-03-03 05:46:00,
2013-03-02 23:50:00,28.8,7.0,30.20,NE,48,0.0,0.0,39,0.00,,---,0.00,VWS V14.00,2013-03-03 05:50:00,
2013-03-02 23:51:00,28.8,7.0,30.20,NE,48,0.0,0.0,39,0.00,,---,0.00,VWS V14.00,2013-03-03 05:51:00,
2013-03-02 23:52:00,28.8,7.0,30.20,NE,48,0.0,0.0,39,0.00,,---,0.00,VWS V14.00,2013-03-03 05:52:00,
2013-03-02 23:56:00,28.8,7.0,30.20,NE,48,0.0,0.0,39,0.00,,---,0.00,VWS V14.00,2013-03-03 05:56:00,
2013-03-02 23:57:00,28.8,7.0,30.20,NE,48,0.0,0.0,39,0.00,,---,0.00,VWS V14.00,2013-03-03 05:57:00,